GEFSMA_500_meanwind_000.txt.gz
Wind_Speed
30 31 32 33 33 34 34 35 36 37 38 39 38 39 40 40 40 40 40 41 41 41 40 39 39 38 38 38 39 39 39 40 38 36 36 36 33 31 30 29 27 26 27
34 35 37 37 37 37 37 38 39 40 42 42 42 42 42 43 43 43 43 42 42 42 42 41 41 42 41 41 41 42 42 42 41 39 38 36 35 32 31 29 28 27 28
35 35 36 37 37 38 39 40 41 41 41 42 43 44 45 46 46 47 47 47 45 45 45 44 44 44 43 44 45 45 45 45 43 42 40 38 37 35 33 31 29 29 29
38 39 39 39 40 41 43 44 44 45 45 45 46 46 47 49 50 51 51 52 51 50 49 49 48 49 48 47 46 45 46 45 44 43 42 40 39 37 35 33 32 32 30
40 40 40 42 45 46 48 49 50 49 49 48 48 48 48 50 51 53 54 55 54 53 54 52 51 52 53 52 49 48 47 45 43 43 42 41 40 40 37 34 34 34 33
44 44 45 48 50 50 51 54 55 54 53 53 53 54 54 54 54 54 55 56 57 56 55 54 55 55 55 53 52 51 49 47 45 44 43 42 41 41 40 37 36 36 35
47 48 48 50 51 51 52 54 55 54 54 55 57 58 58 58 58 59 59 59 58 59 57 56 57 57 56 56 55 54 52 50 49 48 46 45 43 43 43 41 38 37 35
54 53 52 53 55 56 55 55 56 59 60 61 64 65 65 61 59 59 61 62 61 61 60 58 58 58 59 58 58 57 54 53 51 50 49 49 47 45 45 42 39 38 36
52 52 54 56 58 58 57 57 60 62 64 64 66 68 67 66 66 61 59 60 62 62 61 61 60 60 59 59 60 59 57 56 54 53 51 51 51 49 47 45 42 39 38
54 60 63 68 70 70 69 67 63 64 65 66 66 68 67 67 69 69 63 60 59 60 62 63 63 63 61 60 60 59 59 58 56 54 52 51 51 50 48 46 43 43 43
55 65 68 74 80 81 80 77 68 66 68 67 67 67 67 65 65 67 68 64 60 59 61 63 64 66 65 63 61 60 59 57 55 53 51 50 51 50 50 48 48 47 48
62 72 72 73 78 79 72 65 65 71 73 72 69 67 65 62 59 60 61 60 63 64 63 63 63 64 64 62 60 60 60 58 55 53 49 48 49 50 50 51 51 50 50
74 77 74 74 76 74 68 68 72 75 77 75 70 67 61 56 54 60 62 62 64 61 57 55 55 56 60 62 61 60 59 57 55 54 52 49 49 49 48 49 49 48 49
74 73 73 77 77 79 76 76 80 83 73 70 66 63 60 56 57 61 62 59 52 48 45 43 42 42 47 55 58 55 50 50 51 50 49 48 48 49 48 46 45 43 42
72 71 73 72 69 64 65 63 65 64 62 61 58 54 53 54 57 56 50 46 42 37 33 32 32 32 32 36 44 46 45 44 39 39 41 42 43 43 45 41 39 37 36
62 61 62 58 55 54 55 56 56 52 50 51 53 54 50 48 45 40 39 38 36 32 28 28 28 27 26 24 26 32 31 31 24 26 31 36 38 32 38 35 33 32 32
53 51 52 51 49 48 49 50 46 42 41 41 43 41 38 37 37 36 33 32 32 32 34 35 32 28 25 24 21 22 26 28 29 22 25 25 28 32 33 32 27 27 28
52 50 49 46 42 39 38 36 34 34 34 31 29 29 30 32 32 32 32 34 32 33 37 33 30 26 23 20 27 26 25 34 32 19 24 27 30 27 25 25 23 24 25
49 45 42 41 37 33 30 28 28 27 25 24 25 25 25 27 30 31 30 30 30 28 29 28 24 22 23 22 26 30 28 36 32 25 26 26 23 20 19 19 20 23 23
40 35 33 31 28 25 25 24 21 20 22 25 26 26 24 23 27 27 27 27 24 22 23 22 20 20 22 24 25 28 30 38 24 18 20 22 21 19 18 20 21 22 20
30 27 24 23 24 21 19 18 20 23 25 25 21 18 17 20 21 20 19 19 18 17 19 20 19 17 19 23 23 25 24 29 23 19 22 24 23 20 19 19 20 20 18
22 20 20 20 17 17 19 22 22 19 15 11 9 11 13 15 13 11 10 11 13 15 15 14 15 18 19 20 20 21 21 29 26 30 27 23 21 18 17 17 17 18 18
17 16 16 16 18 21 23 23 17 10 6 5 6 9 10 8 3 4 3 6 10 11 13 12 10 17 19 20 23 22 24 31 30 28 25 20 18 18 17 15 17 18 18
14 15 18 22 22 20 18 14 9 5 5 5 6 7 6 5 5 4 1 4 6 7 10 11 13 17 19 21 22 26 31 30 25 23 21 18 18 18 19 17 17 18 19
18 20 18 18 13 8 6 4 2 3 4 3 2 3 3 4 6 6 5 8 9 11 17 18 16 18 19 21 21 21 23 23 21 20 19 18 16 17 19 18 18 19 20
14 14 13 12 9 7 5 4 2 3 4 5 7 10 9 7 2 1 3 6 6 6 9 13 15 15 14 15 18 19 19 18 19 19 18 17 18 19 20 20 21 21 17

GEFSMA_500_meanwind_006.txt.gz
Wind_Speed
28 30 32 34 35 37 39 40 41 42 43 44 43 43 43 43 44 45 45 45 44 44 45 45 45 44 43 43 43 43 43 42 41 41 40 38 36 35 35 33 32 31 31
29 30 32 33 35 37 38 40 42 44 45 46 46 47 47 47 47 47 48 48 47 47 47 46 46 45 45 45 45 45 45 44 43 42 42 41 39 37 37 36 35 34 32
32 33 34 35 37 39 41 43 44 46 47 47 47 47 48 49 49 49 49 49 49 48 47 46 45 45 45 46 47 48 48 47 47 46 45 44 43 41 40 40 39 37 36
34 36 38 39 40 42 44 47 48 49 49 48 48 48 49 49 50 51 51 51 51 50 49 48 46 45 46 47 48 49 50 50 50 50 50 49 47 45 43 43 42 41 40
39 41 44 46 48 49 50 51 52 53 54 55 55 55 53 52 51 51 51 52 52 51 51 50 49 48 48 50 51 52 53 53 53 54 54 54 53 51 49 47 45 42 42
48 50 51 52 53 53 52 54 55 57 59 61 62 62 61 59 57 56 55 54 54 53 53 53 53 53 52 53 55 56 57 57 56 57 57 57 56 55 53 51 48 44 43
55 55 54 54 54 53 51 51 52 54 56 59 61 62 63 62 61 59 57 57 57 58 59 60 61 61 60 60 60 61 60 60 60 60 60 59 59 58 56 54 51 48 45
59 61 61 61 62 63 63 63 64 64 62 63 64 65 64 62 61 61 60 61 62 64 66 68 70 71 70 69 68 66 64 63 63 63 63 63 62 60 59 57 53 51 49
64 67 69 71 73 73 73 75 75 76 75 74 75 76 76 74 73 70 68 66 67 69 72 74 76 77 77 76 75 73 69 66 64 65 65 65 65 63 61 59 55 53 51
72 75 78 79 79 79 79 79 79 79 80 80 81 82 83 84 85 85 83 81 80 79 79 77 77 78 78 78 77 76 74 70 67 67 67 67 67 67 64 61 58 55 55
80 81 82 83 83 82 80 79 78 78 79 79 79 81 82 83 85 89 90 88 86 83 79 74 72 74 76 76 76 75 75 74 72 70 69 68 69 69 68 65 61 58 57
83 82 82 82 80 79 78 77 76 76 75 74 74 75 76 77 78 81 83 81 79 74 70 68 68 69 69 69 69 69 70 71 71 70 69 68 68 69 70 67 63 60 58
82 80 78 74 71 70 68 68 67 67 66 65 65 64 65 65 67 69 70 66 62 59 60 62 63 63 61 61 61 62 64 66 67 68 68 67 66 67 68 68 65 61 59
78 73 67 62 60 58 58 59 59 59 59 60 60 59 59 59 60 61 61 59 55 50 51 51 53 53 53 54 56 57 59 60 61 62 63 63 62 61 63 64 62 60 57
67 63 59 58 58 59 60 61 60 59 60 60 60 59 57 56 57 55 53 51 48 44 40 40 42 43 43 43 42 41 40 41 44 46 48 49 51 54 57 58 56 54 52
62 60 58 59 61 61 61 60 58 58 58 57 55 54 52 50 48 45 44 42 40 37 33 33 34 34 34 33 31 29 29 29 31 31 30 33 39 45 49 49 49 49 49
60 59 59 60 60 58 55 52 51 50 48 47 46 44 42 40 38 37 36 35 33 31 28 27 27 28 28 28 28 27 25 25 23 19 22 27 31 35 37 37 39 42 44
55 54 53 51 49 45 42 40 38 37 37 36 34 33 32 32 31 30 30 28 27 26 25 24 24 23 24 25 26 25 23 22 19 17 21 25 27 29 31 31 31 32 34
45 43 40 37 35 33 32 31 31 31 30 29 28 28 29 29 29 28 27 25 23 23 23 24 24 23 22 23 23 22 21 21 20 23 25 26 28 30 31 31 31 31 31
33 32 30 30 29 29 28 27 27 27 26 26 26 26 24 23 22 21 20 21 21 21 19 21 21 19 19 18 18 19 20 21 23 28 28 27 31 32 33 33 34 32 30
27 26 26 26 26 26 25 24 24 25 24 22 20 18 16 17 17 15 14 13 14 15 15 15 16 15 14 15 16 17 20 22 24 30 27 22 24 25 25 27 28 28 28
25 24 23 24 24 23 22 22 21 20 18 14 12 12 13 14 14 12 9 8 7 8 10 11 11 12 12 13 14 18 19 21 22 27 24 19 21 24 23 22 23 24 25
24 22 21 20 20 20 18 17 15 12 10 9 9 10 11 12 11 11 7 4 5 6 9 10 11 11 12 12 14 16 17 18 21 26 23 20 22 23 23 23 22 21 20
17 17 16 16 17 17 17 16 13 11 10 9 10 10 9 10 11 11 7 2 4 7 9 10 9 11 14 16 17 18 18 17 20 24 23 21 22 22 23 22 21 19 17
19 19 18 18 18 18 17 16 13 12 11 11 11 11 11 11 10 9 5 2 2 6 9 11 12 13 16 19 21 20 18 17 20 23 21 20 20 20 20 20 19 18 17
22 22 22 21 20 19 18 16 14 13 12 12 13 13 13 13 11 8 4 1 3 4 7 10 12 14 17 23 24 23 20 20 22 22 20 19 18 16 15 16 17 18 16

GEFSMA_500_meanwind_012.txt.gz
Wind_Speed
30 30 30 31 31 32 33 34 36 37 38 39 40 41 43 44 44 44 45 45 45 46 47 48 48 48 48 48 47 46 45 44 43 41 39 37 36 35 34 34 34 34 33
34 34 35 35 35 36 36 37 38 39 40 41 43 44 46 48 49 49 50 50 50 50 50 50 50 51 51 51 51 50 48 47 46 44 42 40 38 36 35 35 34 33 33
39 39 39 39 39 40 41 42 43 45 46 47 49 50 51 52 53 54 55 56 56 56 55 54 54 54 54 53 53 53 52 50 49 47 45 43 40 38 37 36 36 35 34
41 42 43 43 44 46 47 49 51 52 54 55 56 56 56 57 57 58 59 60 60 61 60 60 58 58 58 57 56 56 55 54 52 50 48 46 43 40 38 37 36 36 35
44 46 47 49 52 53 55 56 58 59 60 60 60 60 60 59 59 59 61 61 63 64 63 65 65 63 63 62 60 59 58 57 55 53 51 49 46 44 41 39 37 36 37
47 49 51 53 55 57 58 60 61 63 64 65 65 66 66 66 66 66 66 66 66 65 65 65 66 67 67 66 66 64 62 60 59 56 54 52 49 47 45 42 40 39 39
49 51 54 56 57 59 61 64 66 69 71 73 74 75 75 74 75 75 75 74 73 73 72 71 69 68 69 69 68 68 67 65 63 61 59 57 54 52 49 46 44 42 41
52 55 57 62 65 69 72 73 75 78 80 82 83 84 84 82 81 82 83 82 82 81 80 78 78 76 73 72 71 70 69 69 67 66 64 63 60 57 54 51 48 46 45
58 62 67 71 74 77 80 81 84 85 85 84 84 84 85 84 81 78 77 78 80 81 81 79 78 79 79 78 77 76 73 71 70 69 69 68 65 63 60 57 54 51 49
67 70 73 76 79 82 85 86 87 86 84 81 78 76 76 74 72 71 69 68 70 72 74 75 74 73 74 76 78 79 79 77 75 73 72 71 69 67 65 63 60 57 55
73 76 79 82 84 86 86 84 82 78 75 73 70 69 68 67 66 66 64 60 61 63 65 68 68 66 64 67 71 75 78 79 80 79 77 75 73 71 69 68 65 63 61
79 82 84 86 85 84 81 77 74 71 69 67 66 66 66 65 64 65 64 60 59 60 63 63 61 59 58 59 61 66 71 75 78 80 80 80 78 77 75 73 71 69 67
83 86 86 84 80 76 72 69 67 66 65 65 65 65 64 64 63 63 64 62 59 56 58 58 57 55 54 55 56 57 59 62 67 72 76 78 79 78 77 75 74 71 69
85 84 80 75 69 65 62 61 60 60 60 60 60 59 59 59 59 59 59 58 53 49 50 50 51 49 48 49 49 49 49 49 52 57 62 66 68 70 70 70 69 68 67
79 74 66 60 58 57 56 55 54 53 52 51 50 49 48 48 48 48 47 46 44 42 40 40 41 41 41 41 40 40 39 37 38 40 45 50 54 57 58 59 60 60 61
65 57 54 54 53 52 50 47 45 44 42 41 40 39 39 38 37 36 36 36 36 35 32 29 30 31 32 32 31 30 29 28 28 30 32 36 39 43 47 50 52 55 56
50 49 48 47 45 43 41 40 39 38 37 37 36 35 33 32 31 30 31 32 32 31 28 25 24 24 23 22 22 22 22 22 22 23 24 26 29 32 37 42 47 49 51
43 42 41 40 39 37 37 36 36 35 35 34 32 31 29 28 28 28 29 28 28 27 26 21 19 19 18 17 17 17 16 16 17 18 19 21 23 27 30 33 36 38 38
37 36 36 35 35 35 35 34 33 32 31 30 28 27 25 25 25 25 24 24 24 23 22 18 16 17 16 16 15 14 14 15 15 16 17 17 17 18 20 21 23 27 28
31 32 32 32 32 31 31 30 29 27 26 24 22 21 20 20 20 21 22 22 21 19 16 14 15 15 15 15 15 14 14 13 14 16 16 16 14 14 18 24 25 26 27
28 28 28 27 27 26 25 25 24 22 20 18 16 15 15 16 17 18 18 17 15 13 11 12 13 13 15 16 15 14 14 14 15 16 16 15 18 21 24 25 28 30 31
26 26 26 26 25 24 24 22 21 19 16 15 14 13 13 13 14 15 15 12 9 7 7 9 11 12 14 16 15 13 12 12 14 15 15 15 19 28 28 28 32 31 30
28 28 28 27 26 25 24 22 20 18 16 14 13 13 12 13 13 13 12 7 5 4 5 7 10 12 14 14 13 12 12 12 13 14 15 15 17 26 32 32 30 27 25
29 29 28 27 26 25 24 22 20 18 15 13 13 13 13 12 11 11 9 4 2 5 7 10 12 14 15 14 12 12 13 13 13 14 15 14 18 25 31 31 30 26 23
30 30 29 28 27 25 24 23 21 19 17 15 13 12 12 11 9 8 6 3 4 7 10 12 14 15 16 14 13 12 13 14 14 14 14 15 20 25 28 30 29 25 22
32 31 30 28 26 25 23 22 21 20 17 15 13 12 10 9 6 5 2 2 5 9 11 13 15 17 16 15 15 15 15 15 15 15 16 17 21 24 25 26 25 22 19

GEFSMA_500_meanwind_018.txt.gz
Wind_Speed
35 35 35 35 35 36 36 37 38 39 40 41 42 43 43 43 44 45 46 46 45 45 45 45 44 44 43 43 44 44 44 45 44 44 43 42 41 40 39 37 36 34 32
36 36 36 38 39 40 42 43 43 44 44 45 46 47 48 49 50 50 51 52 52 52 52 52 51 51 50 50 49 49 49 49 49 48 48 47 46 44 42 41 39 37 35
37 38 38 39 41 43 45 47 48 49 49 50 51 51 52 54 54 55 55 56 57 58 58 58 57 56 55 55 55 55 55 54 54 53 52 51 51 49 47 44 42 40 38
40 40 41 43 44 46 48 50 51 52 53 54 54 55 56 57 59 60 61 62 63 63 64 64 64 62 61 60 59 59 60 59 59 58 57 56 55 53 52 49 46 43 41
44 44 46 47 49 50 51 53 54 55 56 57 59 60 61 63 64 66 67 69 70 72 72 73 73 72 71 69 66 64 63 63 63 62 62 61 60 58 56 54 51 48 44
48 49 50 50 51 52 53 55 57 58 60 62 64 65 67 68 70 72 74 75 77 79 80 80 80 80 79 78 76 73 71 68 67 66 66 65 64 62 60 58 56 53 48
52 53 53 53 54 55 57 59 61 62 65 68 70 72 73 74 76 78 80 81 82 84 84 84 83 82 81 81 81 79 77 74 71 70 69 68 67 65 64 62 60 57 53
52 55 56 55 57 59 61 63 66 69 71 73 76 78 80 80 81 82 83 83 82 82 80 79 77 76 76 76 77 77 76 73 72 71 72 72 71 69 67 65 63 61 57
56 59 61 62 63 64 66 68 73 76 77 79 81 84 85 85 83 79 76 74 71 69 68 67 67 67 67 68 68 68 68 70 69 70 71 73 74 73 72 69 66 65 61
62 65 67 68 69 71 72 74 77 80 82 82 82 83 82 80 75 69 62 59 58 58 58 59 60 60 61 61 62 61 62 63 65 65 67 70 74 76 76 74 71 69 66
68 70 72 74 75 77 79 80 82 82 82 81 79 74 69 64 61 59 54 51 51 51 52 53 55 55 56 57 58 59 60 60 60 61 61 64 67 72 76 77 75 73 70
71 74 77 79 81 82 83 83 82 79 76 72 65 59 56 54 53 53 51 48 46 45 45 46 46 47 49 51 53 55 56 57 57 57 59 61 62 64 67 72 75 76 74
75 78 80 82 83 82 81 77 72 67 61 56 52 50 50 49 48 47 46 44 42 40 40 39 39 40 42 45 49 51 52 53 53 54 55 56 58 58 59 62 68 73 75
77 78 78 77 75 70 65 60 54 51 48 46 46 46 45 44 44 43 42 41 39 37 36 34 34 35 37 39 42 44 46 47 46 47 48 50 51 52 54 56 60 65 71
70 67 64 59 55 51 48 45 43 42 42 43 42 41 41 41 41 40 38 37 36 33 30 28 29 31 34 35 35 37 38 38 38 37 38 40 42 44 47 50 53 59 65
54 50 45 42 40 39 38 38 39 39 39 39 39 39 39 38 36 35 34 33 32 31 28 25 26 28 31 31 31 30 30 29 29 30 30 32 34 37 40 43 46 50 58
42 40 38 36 35 35 35 36 36 36 36 36 36 35 34 33 32 31 30 28 28 27 26 23 24 25 26 27 25 23 21 20 21 22 23 24 26 28 31 34 38 42 49
37 37 36 36 35 35 35 35 35 35 34 34 33 31 30 29 28 26 24 24 23 25 24 22 22 22 22 20 18 16 15 14 15 16 17 19 20 21 23 25 28 32 39
38 38 38 38 37 36 37 37 37 36 35 33 32 29 28 26 24 22 20 20 21 23 23 21 20 19 18 16 14 12 11 11 12 14 15 15 16 16 16 18 21 25 32
39 40 40 40 40 40 40 40 38 37 35 34 31 29 26 23 21 19 19 20 21 21 20 19 17 16 14 12 10 9 9 9 10 11 12 14 15 13 12 15 17 22 29
40 42 42 43 42 41 41 39 37 37 35 33 31 28 25 22 20 18 18 19 20 19 17 15 13 11 10 10 9 8 7 7 8 10 11 13 13 9 5 11 16 21 27
42 43 43 42 41 40 39 38 37 35 34 32 30 27 25 22 19 18 18 18 17 15 13 11 9 8 9 9 9 8 7 6 7 8 8 9 9 4 6 12 16 21 26
42 43 42 41 39 38 37 36 35 33 31 30 28 26 24 21 18 17 16 15 14 12 10 7 6 7 9 9 8 7 5 4 4 4 4 5 4 5 13 16 20 23 26
43 42 41 39 37 35 34 33 32 30 29 28 26 24 22 20 18 15 14 13 11 8 6 4 5 7 9 10 8 7 4 2 0 2 3 5 7 14 20 22 23 24 26
42 41 39 37 36 34 31 29 28 27 26 25 24 22 20 18 16 14 12 10 7 4 3 4 6 8 10 11 9 7 5 4 4 5 6 8 13 19 23 25 26 26 27
42 40 39 37 35 33 30 27 24 23 22 22 21 20 18 15 13 11 8 6 5 4 5 6 8 9 11 11 10 8 7 7 7 8 9 13 18 22 26 28 29 28 26

GEFSMA_500_meanwind_024.txt.gz
Wind_Speed
31 32 32 32 33 33 34 34 35 35 36 37 38 39 40 41 42 42 42 42 43 44 44 45 45 45 45 46 45 45 45 45 45 45 45 45 45 45 45 44 42 41 39
34 34 35 36 36 37 38 39 39 41 42 43 45 46 46 46 46 46 45 46 46 46 47 48 49 49 49 50 50 51 51 51 51 51 51 50 49 49 48 47 46 44 42
37 38 40 41 42 42 43 44 46 47 48 49 50 51 52 52 51 51 51 51 51 52 52 52 53 53 54 54 54 55 55 56 56 56 56 56 56 55 54 52 50 48 45
39 41 43 44 46 47 48 50 52 52 53 53 54 54 55 56 56 56 56 57 57 58 58 59 59 59 59 58 58 59 58 59 59 60 60 61 60 60 59 58 56 54 51
41 42 44 46 48 49 51 53 54 55 56 56 57 58 59 60 61 61 62 62 63 63 64 65 65 65 65 65 64 64 63 63 63 63 64 64 64 64 63 62 61 60 57
42 43 45 47 48 51 53 54 55 58 60 61 63 64 65 65 67 67 68 68 68 68 69 69 70 71 72 72 72 71 70 70 69 69 68 68 68 69 69 67 65 64 62
44 45 46 49 51 54 56 57 60 62 64 66 68 69 70 71 72 72 73 73 73 73 73 74 74 75 75 76 76 76 75 75 74 71 69 68 68 68 70 72 71 69 67
47 49 52 54 56 58 60 62 65 66 68 71 73 75 75 75 75 76 77 77 77 77 76 75 74 74 74 73 73 73 72 71 70 68 67 67 67 68 70 71 72 72 71
52 55 56 59 61 62 64 67 68 70 71 72 75 77 78 78 76 75 76 76 75 74 72 69 68 67 66 65 63 63 62 60 61 61 62 62 63 64 67 68 71 73 73
58 59 61 63 64 66 68 69 70 70 70 71 71 72 72 70 68 65 63 63 62 61 60 59 58 57 56 56 56 55 55 54 54 56 58 60 63 64 65 66 69 71 74
63 64 65 66 67 68 68 68 67 66 65 64 62 61 59 57 55 53 50 47 47 47 48 48 49 49 50 50 50 50 51 51 51 51 52 55 59 61 63 64 66 68 71
65 66 66 66 66 65 64 62 60 59 57 56 54 53 51 49 47 46 45 42 41 41 42 43 44 45 46 46 47 48 48 48 48 48 48 49 52 54 57 60 63 65 68
65 65 64 62 59 57 55 54 53 52 51 50 50 49 48 46 45 44 43 41 40 39 39 39 41 43 44 44 44 45 45 45 45 46 46 46 47 49 51 54 57 60 62
62 59 55 51 49 48 48 47 47 47 48 48 49 49 47 45 45 44 42 40 39 37 36 36 38 40 40 40 40 41 41 41 41 42 43 43 44 45 47 50 53 56 59
54 49 45 43 42 42 43 44 45 47 48 49 49 49 47 45 44 43 41 40 38 35 31 32 34 36 36 36 36 37 37 37 38 38 39 40 41 42 44 46 49 52 55
45 42 40 40 40 41 43 45 47 48 49 49 49 48 47 47 45 43 41 39 37 34 29 28 30 31 32 32 32 33 33 33 33 33 34 35 36 38 40 42 45 47 50
40 38 38 39 41 44 46 48 49 50 51 50 49 48 46 45 43 40 39 37 35 33 28 24 25 27 28 29 29 28 27 26 27 27 28 29 30 32 34 36 39 42 45
37 37 39 42 45 48 50 51 52 52 51 50 48 46 45 43 40 38 36 34 32 30 26 22 23 24 25 26 25 23 22 22 22 22 22 23 24 26 29 32 34 37 40
38 39 42 45 49 51 53 53 53 52 51 48 46 43 42 40 38 35 33 31 29 27 24 21 21 23 23 22 21 20 19 18 18 17 18 19 22 25 27 30 33 35 37
40 43 47 50 53 54 54 53 52 50 48 46 43 41 39 37 34 32 30 28 26 24 22 20 20 20 19 18 16 15 14 14 14 14 16 19 21 23 25 26 28 30 33
44 48 51 53 54 54 53 51 49 47 45 42 40 38 36 33 30 28 26 25 22 20 19 18 17 16 14 13 12 11 10 10 11 12 15 17 19 19 18 19 19 22 25
49 52 54 54 54 53 52 49 47 44 41 39 37 35 32 29 26 24 22 20 19 17 15 15 14 12 11 9 8 8 7 8 9 11 13 14 14 11 8 6 6 11 17
52 53 53 53 53 52 49 46 44 41 38 36 33 30 27 24 21 19 18 16 15 14 12 11 10 9 7 6 6 6 6 6 7 8 9 10 8 5 5 5 7 10 15
52 52 53 52 51 49 47 43 41 38 35 33 30 26 23 20 17 15 14 13 11 10 9 7 6 5 5 5 5 4 3 3 3 5 6 6 7 9 9 11 14 17 19
51 51 51 50 48 46 43 40 37 34 32 30 26 23 19 16 13 11 11 10 9 7 7 6 5 5 6 5 5 4 2 1 2 4 5 8 11 12 14 17 20 23 26
49 49 48 47 44 42 39 36 33 31 29 26 23 19 16 12 9 9 9 9 8 8 8 7 7 7 7 6 6 4 4 4 5 6 9 12 14 16 18 21 24 27 30

GEFSMA_500_meanwind_030.txt.gz
Wind_Speed
26 27 28 29 30 31 32 34 35 36 37 38 39 40 41 42 42 43 44 45 46 47 48 48 48 48 48 48 48 48 48 47 46 46 46 45 44 43 42 41 40 39 39
28 29 30 31 32 33 34 36 37 39 40 41 42 43 44 45 46 46 47 48 49 50 50 51 51 51 51 51 51 51 52 52 51 51 51 50 50 49 47 47 46 45 43
28 29 31 32 33 35 36 38 39 41 42 44 45 46 47 48 49 50 50 51 51 52 52 54 55 55 55 55 55 55 55 56 56 56 56 55 55 54 53 52 51 50 49
27 29 31 33 35 37 39 41 42 44 46 47 49 50 51 53 54 54 55 55 56 57 58 59 60 60 61 61 61 60 59 59 59 60 60 60 59 58 58 57 56 56 55
29 31 33 35 37 39 42 44 47 49 50 52 53 55 56 57 58 59 59 60 61 62 63 64 65 65 66 66 66 67 66 65 65 64 64 64 63 63 62 62 61 60 59
33 35 38 40 42 45 47 49 51 53 55 56 57 58 59 60 61 62 62 64 65 66 67 67 68 68 69 69 70 71 72 72 71 70 69 68 67 67 67 66 65 64 64
38 40 43 45 47 49 51 52 54 56 58 59 59 60 61 62 62 63 63 64 65 66 66 67 67 68 68 69 71 72 73 74 75 74 73 71 70 70 69 69 69 68 67
42 45 48 50 51 52 53 54 56 57 57 57 58 58 58 57 58 58 59 59 60 60 60 61 62 63 64 65 65 66 68 70 72 73 73 72 71 70 69 70 71 70 70
47 50 52 53 53 53 54 55 55 55 54 54 53 52 49 48 48 49 51 52 53 54 56 56 57 57 58 58 58 59 61 62 64 67 69 70 70 70 69 69 69 70 71
51 54 56 56 55 55 55 54 52 50 49 48 46 45 45 45 45 45 44 45 47 50 52 53 54 54 54 55 55 54 54 54 55 57 60 63 65 66 67 67 67 67 68
55 58 58 58 57 55 54 52 50 48 45 44 43 42 43 44 46 47 47 47 49 50 51 52 52 52 52 52 51 50 48 47 47 47 49 51 55 57 59 61 62 63 63
59 61 60 59 57 55 53 49 47 44 43 42 42 43 44 46 48 50 51 51 52 52 52 53 52 51 50 49 48 47 45 44 44 44 44 45 47 49 51 53 56 58 60
60 60 59 57 55 53 49 46 44 42 42 42 44 46 49 51 53 54 55 55 54 53 53 52 52 51 50 48 46 44 42 42 41 41 42 42 43 45 47 50 52 54 56
59 58 56 55 52 48 45 43 42 43 44 46 48 51 53 56 58 59 59 59 57 55 53 50 50 50 48 45 43 42 40 39 38 39 39 40 41 43 45 47 49 50 53
57 56 53 51 47 44 43 43 43 45 48 51 53 56 59 60 61 61 61 61 60 57 51 47 47 47 46 43 41 38 36 35 35 36 37 38 40 41 43 44 46 47 50
56 53 50 47 45 44 43 44 46 49 53 55 58 61 62 62 62 61 61 59 58 55 49 43 42 42 42 40 37 34 32 31 31 32 34 35 36 39 40 42 44 46 47
53 50 48 45 44 44 45 47 51 54 57 60 62 62 62 62 60 58 57 54 51 49 46 40 38 37 38 36 33 30 28 28 28 29 30 31 33 35 37 39 41 43 45
50 48 45 44 44 46 48 51 54 58 60 61 62 62 60 59 56 53 50 48 46 44 41 36 33 33 33 32 29 27 25 25 26 27 27 28 30 31 33 35 37 39 41
48 46 45 45 46 49 52 55 57 59 61 62 61 59 56 53 49 47 44 43 41 39 37 32 28 28 28 27 24 23 23 23 23 24 25 26 28 29 31 33 35 36 39
46 45 45 47 49 52 55 56 58 59 60 59 57 54 50 46 43 41 39 37 36 34 31 27 23 23 23 22 20 20 20 20 20 20 22 23 25 27 29 31 33 35 37
44 45 47 50 52 54 56 57 58 58 57 54 50 47 44 41 38 36 34 32 30 27 24 21 19 18 19 18 17 16 16 16 17 18 19 20 22 25 27 29 31 33 36
45 47 49 51 53 55 56 56 56 55 53 48 44 41 39 37 34 31 29 27 24 21 18 17 14 14 14 14 13 12 12 12 13 14 16 18 20 21 23 24 25 26 29
47 49 50 52 53 54 54 54 52 50 46 42 39 37 35 33 30 26 24 21 18 15 13 11 10 10 10 10 10 9 9 9 10 10 12 14 14 15 16 16 17 19 21
48 49 50 51 52 52 51 49 47 44 40 37 35 33 31 28 25 21 18 15 12 9 8 7 8 8 8 9 8 6 5 5 5 6 7 7 8 9 9 10 10 10 11
48 49 50 50 50 49 47 45 42 39 37 34 32 29 26 22 19 16 12 9 7 5 5 7 8 8 8 8 6 5 3 1 2 3 3 5 7 7 8 7 4 2 4
47 48 48 48 46 45 43 41 38 35 33 31 28 24 20 16 13 10 6 4 4 6 8 9 9 8 8 7 5 4 2 2 3 5 7 9 10 11 11 9 7 9 12

GEFSMA_500_meanwind_036.txt.gz
Wind_Speed
16 16 17 17 18 19 20 21 23 25 27 30 32 33 35 37 38 40 42 42 44 45 46 46 47 47 47 47 47 47 47 47 46 46 45 44 44 44 43 43 43 41 41
16 17 17 18 19 20 22 24 26 29 31 34 36 38 40 42 44 45 47 48 48 49 50 51 51 51 51 51 50 50 50 50 50 49 48 48 47 47 47 47 47 46 45
18 19 19 20 21 22 24 26 29 32 35 37 40 42 45 47 49 50 51 53 54 54 54 54 55 55 55 55 55 55 55 54 53 52 52 51 51 51 51 51 51 50 49
20 21 22 22 23 24 27 29 32 35 38 41 43 45 47 49 51 53 55 57 58 59 58 58 58 59 59 59 59 59 59 58 57 57 56 55 55 55 55 55 55 55 54
24 25 25 25 27 28 30 33 36 39 41 43 45 47 49 51 53 55 57 58 60 60 60 61 60 61 62 62 62 62 62 62 62 61 61 61 61 61 60 60 60 59 59
27 28 29 29 30 32 34 37 40 42 44 46 47 49 51 52 54 57 58 59 60 60 59 59 58 58 58 59 61 61 62 62 63 64 64 65 65 65 65 64 65 64 64
31 31 32 32 34 36 38 40 43 45 46 48 49 51 52 54 56 57 58 58 58 57 55 54 53 53 52 53 55 56 57 58 60 61 62 63 64 65 65 66 67 67 68
33 34 35 35 37 39 41 44 46 48 49 51 52 53 54 56 58 57 56 55 54 52 50 50 49 49 49 49 50 50 52 54 56 57 58 60 62 63 64 65 66 68 69
34 36 37 38 40 43 44 47 49 51 53 54 54 55 56 57 58 57 55 52 49 48 48 48 47 47 48 48 49 49 50 51 53 55 56 57 59 61 62 63 64 66 67
38 40 41 42 44 46 49 51 52 54 55 56 57 57 57 57 56 54 53 51 48 46 47 47 49 50 51 51 51 52 53 53 54 55 56 56 57 58 59 60 62 63 65
44 45 45 46 49 51 52 54 56 57 58 58 58 58 57 57 55 54 52 50 49 49 50 51 52 54 55 56 56 56 56 56 56 56 57 57 57 57 58 59 60 61 62
48 49 50 51 53 55 56 57 58 58 58 58 58 58 57 56 55 54 52 52 52 53 54 56 58 59 60 61 61 61 60 59 59 59 58 58 57 57 58 58 59 60 60
52 53 54 55 56 57 58 58 59 59 58 58 58 57 57 56 55 55 55 55 56 57 59 61 62 63 64 65 65 64 63 62 61 60 59 58 58 57 56 56 56 56 57
55 56 56 56 56 57 58 59 59 59 59 58 58 57 56 56 56 56 57 59 60 61 63 64 64 65 65 65 65 64 63 62 61 59 58 57 56 56 55 54 54 54 54
55 54 53 53 55 57 58 58 58 58 58 57 57 56 55 56 57 58 60 62 64 64 65 64 64 63 63 62 62 61 60 58 57 55 54 54 54 53 52 52 52 51 52
51 51 52 53 55 57 57 58 58 57 56 56 55 55 56 57 59 61 62 64 65 66 66 62 60 57 56 56 56 55 54 52 51 50 49 49 49 49 49 49 49 49 49
50 51 52 54 55 56 56 56 56 55 55 55 56 57 58 60 61 62 63 63 63 63 61 56 53 50 49 49 48 48 46 45 44 43 43 43 43 44 44 44 44 44 45
50 51 52 54 55 55 55 55 54 54 55 56 57 58 59 61 61 61 60 58 56 54 51 47 46 44 43 43 42 41 40 38 38 37 36 37 37 38 40 40 41 41 42
49 51 52 53 53 53 53 53 54 55 56 57 58 59 60 59 58 56 53 49 47 45 43 41 39 38 37 37 36 35 34 33 31 31 31 31 32 33 35 36 37 38 39
50 51 52 52 52 52 52 53 54 56 57 58 59 58 57 55 52 48 44 42 40 38 38 36 33 32 31 30 29 27 26 25 24 24 24 25 27 28 30 32 34 36 37
49 50 50 50 51 51 52 54 55 57 57 57 55 54 51 48 44 41 38 37 35 34 32 29 26 25 24 23 21 19 18 18 18 18 20 22 24 25 27 29 31 33 35
49 49 49 49 50 52 53 55 55 56 55 53 51 48 45 42 39 36 34 32 31 28 25 22 20 18 17 15 14 13 12 12 13 14 16 18 20 22 25 27 29 31 34
47 48 48 50 51 53 54 54 53 52 51 48 45 42 39 37 34 31 29 27 24 20 17 15 13 12 10 9 8 7 7 7 8 10 12 14 16 19 22 24 27 30 33
46 48 49 51 52 52 52 51 49 47 45 43 39 36 33 30 27 25 22 19 15 12 9 8 7 5 3 3 3 3 4 4 5 7 8 11 13 16 18 21 24 27 30
47 49 50 50 50 49 48 46 44 42 39 37 34 30 26 24 21 17 14 11 7 5 3 2 0 1 2 3 3 3 3 2 3 4 6 8 10 12 14 15 18 20 23
48 49 49 48 46 44 42 40 38 36 34 31 28 24 20 16 13 10 7 4 1 1 2 4 5 5 5 4 4 3 2 2 1 2 4 5 6 7 8 9 11 13 16

GEFSMA_500_meanwind_042.txt.gz
Wind_Speed
16 16 17 17 18 18 18 19 20 20 21 22 23 25 26 28 30 32 33 33 34 36 38 40 41 43 45 46 47 48 49 49 49 48 48 48 48 49 49 49 48 47 47
18 19 19 20 20 21 21 22 23 24 25 26 27 28 29 31 33 35 37 37 38 39 40 42 44 46 48 49 51 52 53 53 53 52 52 51 51 51 51 51 51 50 50
21 22 22 23 24 24 25 27 27 28 29 30 31 33 34 35 37 39 40 41 42 42 43 45 47 49 51 53 54 56 56 57 57 57 56 55 54 54 53 53 53 53 52
25 25 26 26 28 28 29 31 32 33 35 36 37 38 39 40 41 42 44 45 46 48 49 50 51 52 54 56 58 59 59 60 60 60 59 58 58 57 56 56 55 55 54
28 29 29 30 31 32 33 35 36 37 39 41 42 43 43 45 47 48 49 50 51 53 54 56 57 57 58 59 61 62 63 63 63 62 61 60 59 58 58 57 57 57 57
31 31 31 33 35 35 37 38 40 41 43 44 46 47 48 49 51 53 54 55 56 58 59 60 61 62 63 63 64 65 65 63 62 62 61 60 59 58 57 57 57 57 58
33 34 33 35 36 38 40 41 42 44 45 47 49 50 51 53 55 56 58 59 61 62 63 64 64 65 66 66 66 65 63 61 59 59 58 57 57 55 55 55 55 55 56
37 36 37 37 39 41 42 43 45 47 49 51 52 53 54 55 57 59 61 62 63 64 65 66 67 67 67 66 64 62 60 58 56 54 54 53 53 52 52 52 52 53 54
39 38 39 41 42 44 45 46 47 50 52 53 54 56 57 58 59 61 64 65 65 66 67 68 68 67 66 64 62 59 57 55 54 52 52 51 51 51 51 50 51 51 52
42 41 41 43 45 47 48 49 50 51 52 54 56 58 59 60 60 61 63 65 66 67 68 68 67 65 63 61 58 57 55 54 53 52 52 51 51 51 51 51 51 51 51
44 43 43 45 47 49 50 51 52 53 55 56 58 59 60 61 61 62 63 65 66 67 68 67 65 62 60 58 57 56 55 55 54 55 55 55 55 54 54 54 53 53 52
45 44 45 47 49 50 51 52 53 54 55 56 57 58 60 61 62 64 65 66 67 67 67 65 63 61 59 58 58 57 57 57 57 58 58 59 59 59 59 59 58 57 56
45 46 47 49 51 52 52 52 53 54 55 56 57 59 61 62 64 65 67 68 68 67 66 64 62 61 61 60 60 60 60 60 60 61 62 63 63 63 63 62 62 61 60
47 48 50 51 51 52 53 53 53 54 55 57 58 59 61 63 65 67 68 68 68 66 65 64 63 63 63 63 63 63 63 63 63 64 65 65 65 65 65 65 64 64 63
49 51 52 52 54 55 54 53 54 55 55 57 58 60 62 64 66 68 68 69 69 67 65 65 65 65 65 65 64 64 63 63 63 63 63 63 63 63 64 64 64 64 65
51 53 54 56 57 55 54 54 55 55 56 58 60 62 64 66 67 68 69 69 69 69 68 67 66 65 63 62 60 59 58 57 56 56 57 56 57 57 58 60 61 62 63
54 55 57 58 56 55 55 55 56 56 57 58 60 62 64 66 67 68 69 69 69 69 69 65 63 60 56 53 51 50 49 48 47 46 47 48 48 49 51 53 55 57 59
56 57 58 57 56 57 55 54 54 56 58 60 61 63 64 66 67 68 68 67 66 65 63 58 53 49 47 45 43 42 41 40 40 40 41 41 42 43 44 46 47 50 53
57 59 59 60 59 57 54 54 55 57 59 60 62 64 65 66 66 65 65 63 60 57 53 48 43 41 39 38 38 36 35 35 35 34 34 34 35 36 38 40 41 43 45
61 62 62 61 58 55 53 54 56 57 59 60 62 63 64 63 63 61 57 54 50 47 43 40 36 34 34 34 32 30 29 29 29 29 29 29 29 30 31 33 35 36 38
64 62 60 56 55 53 52 54 56 57 59 60 61 61 60 59 56 52 48 44 41 37 34 32 29 29 29 27 26 24 23 22 23 23 22 23 23 24 25 26 28 29 32
61 60 55 52 51 51 52 54 56 57 58 58 58 56 54 51 47 43 40 36 34 31 28 26 25 23 21 20 18 17 16 16 16 17 17 17 18 19 20 21 22 24 26
58 53 50 49 49 50 52 54 55 55 55 54 52 49 45 42 39 36 32 29 27 24 21 20 18 15 14 13 12 12 12 11 11 13 13 13 14 14 16 17 18 20 23
52 50 48 48 49 50 51 52 52 51 49 47 44 40 36 34 32 28 24 21 18 16 15 13 11 10 9 9 9 8 9 9 9 10 10 10 11 12 12 14 15 18 20
48 46 47 47 48 49 48 48 47 45 41 38 35 32 29 27 23 20 17 14 12 11 9 8 7 7 7 7 8 8 8 8 8 9 9 9 9 9 10 11 13 16 19
45 46 46 46 46 45 44 42 40 36 33 30 28 26 23 20 17 14 11 9 7 6 5 5 6 6 7 7 8 9 9 8 8 8 8 8 7 8 8 9 10 12 16

GEFSMA_500_meanwind_048.txt.gz
Wind_Speed
18 18 18 18 18 19 19 19 20 20 21 23 24 25 27 28 29 29 30 31 32 32 33 34 35 36 36 37 38 39 39 40 40 41 42 43 43 44 44 45 45 45 45
19 20 20 20 20 21 23 23 23 24 25 26 27 28 30 32 34 35 36 37 38 38 39 39 40 40 41 41 42 43 43 44 45 45 46 46 47 47 47 48 48 48 48
22 22 22 23 24 24 25 26 27 28 29 30 31 32 33 36 38 39 41 42 43 44 44 45 45 46 46 47 47 48 48 49 50 50 51 51 52 51 51 51 51 52 51
24 24 25 26 26 27 28 29 31 32 33 34 35 36 37 39 40 42 44 45 46 47 49 50 50 51 51 52 53 53 54 54 55 56 56 56 56 56 56 55 55 55 54
27 27 27 27 28 28 29 31 33 35 37 38 39 40 41 42 43 45 46 47 49 51 52 53 54 55 56 56 57 57 58 58 59 59 60 60 60 60 59 59 58 58 57
31 30 30 31 31 32 32 34 36 38 40 41 42 42 44 45 47 48 50 51 53 54 56 57 57 58 59 59 60 61 61 62 62 62 63 63 63 63 62 61 60 60 59
34 33 34 34 35 35 35 37 38 41 43 44 44 45 46 48 49 51 53 54 56 57 58 59 60 61 62 63 64 64 64 64 64 65 65 65 65 64 63 62 61 61 60
36 36 37 37 37 37 38 39 41 43 44 44 45 46 47 49 51 53 54 56 58 59 60 61 62 63 64 65 65 65 65 66 66 66 66 66 65 64 63 61 60 59 59
39 39 38 38 38 39 40 41 42 43 45 45 46 48 49 50 52 54 56 57 58 60 61 62 62 63 64 64 65 65 66 67 67 67 67 65 64 62 61 60 59 58 57
39 41 41 40 40 41 42 43 44 44 45 47 49 50 52 53 53 54 56 58 59 60 61 63 63 64 64 65 66 67 67 68 68 68 67 65 63 61 59 58 58 57 57
41 42 42 43 43 44 44 45 46 46 48 50 51 53 55 55 56 56 56 58 60 61 62 63 64 65 66 67 68 69 69 70 70 69 67 65 63 60 59 58 57 57 57
44 44 44 44 45 46 46 47 48 49 51 53 54 55 57 58 59 59 58 59 60 61 62 64 65 67 68 69 71 71 72 72 71 69 67 65 63 61 60 59 58 57 56
45 45 46 47 47 48 49 50 51 53 55 56 57 58 59 60 60 60 60 60 59 61 63 65 67 69 70 72 73 74 75 74 73 71 69 66 65 63 62 61 60 59 58
47 48 48 49 50 50 51 52 54 56 57 58 59 60 61 62 60 61 62 62 62 62 64 66 69 71 73 74 75 76 76 75 74 72 69 67 66 64 63 62 61 60 60
51 51 51 51 52 53 54 56 57 58 59 60 61 62 61 61 61 62 63 64 65 65 65 68 70 73 75 75 75 74 73 71 69 68 66 65 63 62 61 61 61 61 61
54 54 55 55 56 57 58 58 59 59 59 60 61 61 61 61 61 61 62 64 66 67 67 69 72 74 74 73 71 69 65 62 60 59 58 57 57 57 57 57 58 59 61
57 58 58 58 58 59 59 59 59 60 60 61 61 60 59 60 60 60 62 64 66 68 69 69 71 71 69 66 62 58 54 51 49 47 47 47 48 49 51 52 54 56 58
59 60 60 59 59 59 59 59 59 59 59 60 60 59 59 59 59 60 62 64 66 69 69 67 64 61 57 52 48 45 43 41 39 39 39 40 41 42 43 45 47 50 53
60 60 59 58 58 59 59 59 58 59 60 60 59 58 58 57 58 60 62 64 65 65 62 59 52 48 44 41 38 36 34 34 33 33 33 33 34 34 36 37 39 42 45
58 57 57 57 57 57 58 58 58 59 59 58 57 57 57 58 59 60 60 60 59 56 52 47 41 37 34 32 30 28 28 28 27 26 26 26 27 27 29 30 32 35 38
56 56 56 55 56 57 57 58 58 58 57 56 55 55 56 57 57 57 56 53 50 45 41 36 32 28 26 25 25 24 22 22 22 22 21 21 22 23 25 26 27 30 32
53 54 54 55 56 57 57 57 57 55 53 53 53 53 54 54 53 51 48 44 39 34 28 26 23 21 20 20 19 19 18 18 18 19 19 19 19 19 21 22 24 26 28
52 53 54 55 56 55 54 53 51 50 50 50 50 50 49 48 45 41 37 33 28 24 21 19 17 16 16 16 16 17 17 17 17 17 17 16 16 16 17 18 20 22 24
52 53 53 53 52 50 49 48 48 48 47 47 46 44 41 38 35 30 27 23 20 18 16 14 14 13 14 14 15 15 16 16 16 15 14 13 13 14 14 15 16 18 20
50 50 49 48 46 45 45 44 44 43 42 41 39 36 33 29 26 22 18 16 14 13 12 12 11 12 12 13 15 15 16 15 14 13 12 12 11 12 12 13 14 16 18
46 45 44 43 43 42 41 40 38 38 37 35 33 29 25 22 18 14 11 10 10 9 9 10 11 12 13 14 15 15 15 14 13 12 11 10 10 9 10 10 10 12 14

GEFSMA_500_meanwind_054.txt.gz
Wind_Speed
12 12 13 14 14 16 17 18 20 21 22 23 24 25 25 26 26 27 28 29 30 31 32 33 34 35 36 37 38 39 39 39 39 40 40 40 40 40 39 39 39 38 38
16 16 16 17 18 19 20 21 23 23 25 26 27 28 28 29 30 31 32 33 34 35 36 37 38 39 40 41 42 42 43 44 44 44 44 44 44 44 43 43 42 42 42
19 19 20 21 22 22 23 23 24 26 27 28 30 31 32 33 34 35 36 37 38 39 40 40 41 42 42 43 44 45 45 46 47 47 48 48 48 48 48 47 47 47 46
22 23 23 24 25 25 25 26 26 27 29 30 32 34 35 36 37 38 39 40 41 42 43 44 44 45 45 46 47 47 48 48 49 50 51 51 52 52 52 51 51 50 50
26 26 26 27 28 28 28 29 29 30 31 32 33 35 36 38 40 41 42 42 43 45 46 46 47 47 48 49 50 51 51 52 52 52 53 53 53 53 54 54 54 53 53
28 28 29 29 30 30 30 30 30 32 33 34 35 37 38 40 41 42 43 44 45 46 48 49 49 50 51 51 52 53 54 54 55 55 55 55 55 55 55 55 55 55 55
29 30 30 30 31 32 31 31 31 33 33 35 37 38 39 41 43 44 44 45 47 48 50 51 52 53 54 54 55 55 56 56 57 57 57 57 56 57 57 56 57 56 56
29 29 29 30 32 33 34 34 35 35 35 36 38 39 41 43 44 45 46 47 49 50 52 53 54 56 57 57 58 59 59 59 59 58 58 58 58 58 59 59 59 59 59
28 29 30 31 32 34 35 36 37 37 38 39 40 42 44 45 47 47 48 50 52 53 55 57 58 59 60 61 61 62 62 61 60 60 60 60 61 61 62 62 61 61 61
28 29 30 32 34 36 38 39 40 40 41 42 43 44 46 47 49 50 51 53 55 57 58 59 61 62 62 62 62 62 62 62 62 62 62 63 63 64 65 65 65 65 64
29 31 32 34 37 38 40 41 43 44 45 46 46 48 49 51 52 54 55 56 58 60 61 62 63 64 63 63 63 63 64 65 65 66 66 67 68 68 69 69 69 69 68
33 34 35 38 40 42 44 46 47 47 48 50 51 52 53 55 56 58 58 58 59 60 62 63 63 64 64 65 65 66 67 68 68 69 70 71 72 73 73 73 73 72 71
37 38 40 43 44 46 48 50 51 52 53 54 56 57 58 59 60 61 61 61 61 60 61 62 64 65 66 66 67 68 69 70 71 72 73 74 74 75 75 74 74 73 72
42 44 46 48 50 51 52 54 55 55 56 58 59 60 62 62 62 62 62 62 61 61 61 62 63 65 66 67 68 69 70 70 71 72 73 73 74 74 74 74 73 72 71
48 49 51 53 55 56 56 57 58 59 60 61 62 62 62 62 62 62 62 62 62 60 58 60 62 64 66 66 68 69 69 70 71 71 71 70 70 69 68 67 67 66 66
52 54 56 57 58 59 58 59 60 60 61 61 61 61 61 61 61 61 60 62 62 61 60 60 62 64 66 67 68 68 67 66 65 63 62 60 59 58 58 57 58 58 59
55 57 58 58 59 59 60 60 60 61 61 61 61 61 61 60 60 60 61 61 61 61 61 60 63 64 66 66 65 63 60 57 54 52 50 49 48 47 46 46 47 47 49
58 58 59 59 59 59 60 60 60 60 60 60 59 59 59 59 59 60 60 60 60 61 61 60 61 62 62 60 57 53 50 46 44 42 40 39 38 37 38 38 39 40 41
59 59 58 58 59 59 59 58 58 58 58 57 57 58 58 58 58 59 59 59 59 60 60 59 57 55 52 49 46 42 39 37 35 34 33 33 33 34 34 34 35 35 36
59 58 57 57 58 57 57 56 55 55 55 55 56 56 57 56 56 57 56 56 56 55 54 52 48 44 40 37 35 32 31 31 31 31 30 30 30 30 30 30 30 31 31
57 56 56 56 56 55 55 54 53 54 54 55 55 55 55 54 54 53 52 52 50 48 46 41 37 33 31 29 28 28 27 28 29 29 28 28 28 28 28 27 27 28 28
54 53 53 53 53 52 53 53 53 52 52 52 52 52 51 50 49 49 48 46 44 40 35 31 28 26 25 25 25 26 26 26 27 27 27 27 26 25 25 24 25 25 25
50 50 50 50 50 50 50 51 51 51 50 49 48 47 47 45 44 43 42 39 36 31 27 24 21 21 21 22 23 24 25 25 25 24 23 23 24 23 23 22 22 22 22
48 49 49 49 50 50 49 48 48 47 46 46 45 43 42 40 38 36 33 30 27 23 20 18 17 18 19 21 23 23 23 23 22 22 21 20 20 20 19 19 19 19 19
47 47 48 48 48 47 46 46 45 45 44 42 40 38 35 33 31 27 25 22 19 16 15 14 15 17 19 20 20 21 20 20 20 21 19 17 17 17 16 15 15 15 15
46 46 46 46 46 45 44 43 41 40 38 36 34 31 28 25 22 20 16 14 12 11 12 13 15 16 18 18 19 19 19 19 19 19 17 16 16 15 14 13 12 12 12

GEFSMA_500_meanwind_060.txt.gz
Wind_Speed
19 20 21 21 21 21 20 20 20 20 21 21 21 21 22 22 23 24 25 25 26 27 27 28 29 30 31 31 32 33 34 34 35 36 37 37 37 38 38 37 37 36 36
23 23 24 24 24 24 23 23 23 22 23 24 24 24 24 25 26 27 28 28 29 30 30 31 32 33 34 35 36 37 37 38 39 40 40 41 41 41 41 41 41 41 40
27 28 28 28 27 27 27 27 26 25 25 25 26 26 27 28 29 30 31 32 32 33 34 35 36 36 37 38 39 40 40 41 42 43 43 44 44 44 45 45 45 45 45
31 31 32 32 32 31 30 30 29 29 27 27 28 28 29 29 30 31 32 33 34 35 36 37 38 39 40 41 42 43 43 44 44 45 46 47 47 48 48 48 48 48 48
34 35 36 34 33 33 33 32 31 30 29 28 29 29 30 30 31 33 34 35 36 37 38 39 40 41 42 44 45 46 46 47 47 48 48 49 50 50 51 51 51 51 52
36 37 37 36 35 35 34 33 32 31 30 30 30 30 31 32 32 34 35 36 37 39 41 42 43 44 45 47 48 49 50 50 51 51 52 53 53 54 54 54 54 54 55
35 34 35 36 35 35 34 32 30 30 30 30 32 32 32 33 34 35 37 38 40 42 43 44 45 47 48 49 50 51 53 53 54 54 55 56 57 57 57 57 57 57 58
32 32 31 31 32 32 31 29 28 27 27 29 31 33 34 35 36 37 39 41 42 44 46 47 48 50 52 53 54 54 55 56 57 58 59 59 60 60 60 60 60 60 60
33 31 30 28 26 26 26 26 26 27 29 31 33 35 37 38 38 40 42 44 45 47 49 51 53 54 55 57 58 58 59 60 60 61 62 62 63 63 63 62 63 63 62
32 29 26 24 24 25 26 27 28 29 32 34 36 38 40 42 44 47 47 48 49 51 53 54 56 57 58 60 61 61 61 61 62 63 63 64 64 65 65 65 65 65 65
33 31 28 26 28 29 30 31 33 35 37 39 40 42 44 46 48 50 51 53 54 55 56 58 60 61 62 62 63 63 62 63 63 64 65 65 65 66 67 67 68 68 68
35 33 32 31 32 34 35 36 37 39 41 43 45 46 48 49 51 53 55 56 58 59 60 61 62 62 63 63 64 64 64 64 64 65 65 66 67 67 68 68 69 69 69
37 37 36 36 36 37 39 41 42 44 45 47 48 49 51 53 54 56 57 59 60 60 61 62 63 63 64 64 65 64 64 65 65 66 66 67 67 67 67 68 69 69 69
41 41 40 41 41 42 44 45 46 48 49 50 51 52 54 55 56 57 58 60 61 61 61 62 63 63 64 64 65 64 65 65 65 66 66 66 66 66 66 66 66 66 66
44 45 45 45 45 46 47 48 49 51 51 52 53 55 56 57 58 58 59 60 61 60 60 61 61 62 63 64 64 65 65 65 64 64 64 64 64 63 63 63 63 63 63
47 48 48 49 50 51 52 52 52 53 54 55 55 56 56 57 57 57 57 58 59 59 59 59 60 61 62 62 63 63 62 62 61 60 59 59 59 59 58 58 59 59 59
50 51 52 52 53 53 54 54 54 54 55 55 55 55 55 55 55 56 56 57 58 58 57 57 58 59 59 60 59 58 57 55 54 53 52 51 51 50 50 50 50 50 50
53 54 54 54 55 55 55 55 55 54 54 54 54 54 54 54 54 54 55 55 56 56 56 55 55 55 55 55 54 52 50 49 47 45 44 43 42 41 41 41 41 42 43
55 55 55 55 55 55 55 54 54 53 53 52 52 52 52 52 53 53 53 53 53 53 53 52 51 50 50 49 47 45 43 41 39 37 36 35 35 34 35 35 36 37 37
56 56 56 55 55 54 53 53 52 52 51 51 51 51 51 51 51 51 51 50 50 50 49 48 47 46 44 42 40 38 35 34 33 32 32 32 32 32 32 33 33 34 35
55 55 55 54 54 53 52 51 50 50 49 49 49 50 50 50 49 49 48 47 47 47 45 44 41 39 37 35 33 31 30 29 30 30 30 31 30 31 31 31 31 31 32
54 54 53 53 52 51 50 49 48 48 48 48 49 49 48 47 46 46 45 44 43 41 39 36 34 32 30 28 27 27 27 27 27 28 29 29 29 29 29 29 29 29 29
52 51 51 50 49 49 49 49 49 49 48 48 48 47 46 45 44 43 41 39 37 34 31 29 27 25 24 25 25 25 26 26 26 26 26 27 27 26 26 26 26 26 27
49 48 48 48 49 49 49 49 48 48 47 47 46 44 43 41 40 37 34 32 30 27 24 22 21 21 22 22 23 23 24 24 24 25 26 25 25 24 24 24 24 24 24
47 47 47 47 48 48 48 48 48 47 45 43 41 39 37 35 32 30 28 26 24 21 18 17 17 19 20 20 20 21 22 23 23 24 25 24 23 23 23 23 22 21 21
45 46 46 47 47 47 46 45 44 42 39 37 35 32 29 27 25 24 22 19 17 15 14 14 15 16 17 18 19 19 21 22 22 22 23 22 22 21 21 21 20 19 18

GEFSMA_500_meanwind_066.txt.gz
Wind_Speed
20 21 22 24 25 25 25 25 24 24 23 24 24 24 24 25 25 24 23 23 25 24 24 24 25 25 26 27 28 29 29 30 31 31 32 32 33 34 34 35 36 36 36
22 23 25 26 28 28 28 28 27 27 27 27 26 26 27 27 27 27 26 25 26 26 27 27 28 29 30 30 31 31 32 33 34 34 35 36 37 38 38 39 39 39 40
25 26 27 28 29 29 30 31 31 31 31 30 29 29 29 29 29 29 29 29 28 27 28 30 31 31 32 32 33 34 35 36 37 38 39 39 40 41 42 42 42 43 43
28 29 31 31 33 32 31 33 33 34 33 31 30 30 30 29 30 31 31 31 31 30 31 32 33 35 35 35 36 38 39 40 41 42 43 43 44 45 45 46 46 46 46
30 32 33 32 33 32 32 33 32 33 33 31 31 30 30 30 29 30 31 32 33 33 33 34 36 38 38 39 40 41 42 43 44 46 47 47 48 49 49 49 50 50 50
31 32 32 32 33 33 31 30 28 29 29 29 30 30 30 29 28 28 29 30 31 33 34 35 36 37 39 40 42 44 46 47 48 50 51 51 52 53 53 54 54 54 54
32 31 32 33 33 33 32 30 28 27 26 26 26 27 28 27 27 28 29 31 32 34 36 37 38 39 41 43 45 47 49 51 52 54 55 56 57 58 58 58 58 58 58
34 33 33 33 33 32 31 31 29 27 26 26 26 26 26 28 28 29 31 32 33 35 38 40 42 44 46 48 49 51 53 54 56 58 59 61 62 62 63 63 63 62 62
36 35 34 33 34 33 31 31 31 30 27 26 28 30 30 31 31 33 35 36 38 40 42 44 46 48 50 52 54 56 57 59 60 62 63 64 65 66 66 66 66 66 66
38 36 36 37 36 34 33 33 34 33 31 31 32 33 34 35 36 37 39 41 43 44 46 48 51 53 55 57 59 60 61 63 64 65 67 67 68 68 68 68 68 68 68
40 39 38 39 38 36 36 36 36 36 35 35 36 37 38 40 42 43 44 45 48 49 51 53 55 57 59 60 62 63 64 66 66 67 68 69 69 69 68 68 68 68 68
42 41 40 41 40 39 39 39 39 39 39 40 40 41 42 45 46 48 49 50 52 54 55 57 58 60 62 63 65 65 66 67 67 68 68 68 68 68 68 67 67 68 68
43 43 43 43 43 42 42 42 42 42 43 43 45 46 47 49 51 52 54 55 56 57 59 60 61 63 64 66 67 67 67 67 67 67 67 67 67 67 67 67 67 67 67
44 44 45 45 45 45 45 45 45 46 46 47 48 50 51 52 54 56 57 58 58 59 60 62 64 65 66 66 66 66 66 66 66 65 65 65 66 66 66 66 66 65 65
47 48 48 48 49 49 48 49 49 49 49 50 51 53 54 55 56 57 58 59 60 60 60 62 63 64 65 64 64 63 63 63 63 63 63 63 63 63 63 63 63 63 62
50 50 50 50 51 51 51 52 52 52 53 53 54 55 56 57 57 58 59 59 60 60 59 60 61 62 61 61 61 61 61 61 61 61 60 59 58 57 57 57 57 57 58
52 53 53 53 53 54 55 55 55 56 56 56 57 57 57 57 58 58 58 58 59 59 58 58 59 59 59 60 59 59 59 58 57 56 55 54 53 52 52 51 50 49 50
54 56 56 57 57 58 58 58 58 58 58 58 58 57 57 57 56 56 56 56 57 57 57 56 56 57 57 57 56 56 55 54 52 50 49 47 46 45 44 43 44 44 45
56 57 58 59 59 60 60 60 60 59 58 58 57 57 56 55 55 55 54 54 54 54 54 54 53 53 53 53 52 51 49 47 45 44 43 41 40 40 40 40 40 40 41
56 58 59 60 60 60 60 59 59 58 57 56 55 55 54 53 53 53 52 53 52 52 52 51 51 51 50 49 47 45 42 41 41 40 38 37 37 37 37 37 37 37 37
58 59 59 59 59 59 58 58 57 56 55 54 54 53 53 53 52 52 52 51 51 50 49 49 47 46 44 42 40 39 38 37 36 35 35 35 35 35 35 35 35 35 34
57 57 57 57 57 56 56 56 55 54 54 53 53 53 52 52 51 51 50 49 48 46 45 44 41 39 37 36 35 34 33 32 31 31 32 32 33 32 33 32 32 32 31
54 55 55 54 54 54 54 54 53 53 53 53 52 52 51 50 48 47 46 44 42 41 39 37 34 33 31 30 29 28 28 28 28 28 29 29 30 30 30 30 30 29 29
53 53 53 53 52 52 52 52 52 51 51 50 49 48 46 45 43 42 40 38 36 34 31 28 27 26 25 24 24 24 24 25 26 27 27 27 28 28 28 28 28 27 27
50 50 50 50 50 50 50 50 49 47 46 45 44 42 40 38 36 33 31 30 28 26 24 22 21 20 19 19 20 21 22 23 24 25 26 26 25 26 26 26 25 25 24
48 48 47 47 47 46 46 45 43 41 40 38 36 34 32 29 27 25 24 22 20 19 18 15 15 15 15 16 17 18 20 21 22 23 24 24 24 24 23 24 24 23 22

GEFSMA_500_meanwind_072.txt.gz
Wind_Speed
7 8 9 9 11 12 14 14 15 15 16 17 19 19 19 19 19 20 21 22 22 22 23 23 24 25 25 25 26 26 27 28 29 30 30 31 31 32 33 33 34 35 35
8 8 10 10 11 13 14 16 16 16 16 17 18 18 19 19 20 21 22 23 24 24 25 25 26 27 27 28 28 29 30 30 31 32 33 34 34 35 36 37 37 38 38
9 10 11 12 12 13 14 15 16 15 15 16 16 17 17 19 20 22 23 23 25 25 26 27 27 28 29 30 30 31 33 33 34 35 36 37 38 38 39 40 41 41 42
13 13 12 13 14 14 15 16 16 16 16 16 16 16 17 19 20 21 22 24 25 26 27 28 30 30 30 31 32 33 34 35 36 38 39 40 40 41 42 43 44 45 45
17 17 16 16 16 17 17 17 17 17 16 16 16 17 17 18 19 21 22 25 26 27 28 29 30 31 31 32 33 35 36 37 39 40 41 43 44 45 46 47 48 48 49
21 21 20 20 20 20 20 19 19 19 18 18 18 18 18 19 20 21 23 24 25 27 28 30 31 32 33 34 36 38 39 41 42 44 45 47 48 49 50 51 52 52 53
26 25 24 24 24 24 23 23 22 22 21 21 21 21 22 22 23 24 25 26 27 28 29 31 33 35 36 37 39 42 44 45 46 48 49 51 52 54 55 56 57 57 58
31 30 29 29 28 27 27 26 25 25 24 24 24 24 25 26 27 28 28 29 31 32 33 35 37 38 40 42 44 46 47 49 51 52 54 56 57 59 60 61 62 63 64
34 33 31 33 32 31 31 30 29 29 28 27 27 28 29 30 31 32 33 34 36 37 39 40 41 43 44 46 48 49 51 53 54 56 58 60 62 63 65 66 67 67 68
34 34 34 35 35 34 32 32 32 32 31 31 31 32 33 34 35 36 38 39 41 42 43 45 46 48 49 51 52 54 55 57 59 60 62 64 66 67 69 69 70 71 71
38 38 38 37 38 37 37 37 36 35 34 34 36 37 38 39 40 41 42 44 46 47 48 50 51 53 54 55 57 60 61 62 64 65 67 68 69 70 71 72 72 72 72
40 39 39 40 39 40 40 39 38 39 38 38 40 41 43 44 46 47 47 48 49 51 53 54 56 57 58 60 61 63 64 65 67 68 69 70 70 71 71 71 70 70 70
40 41 42 42 42 42 41 41 41 42 42 43 45 46 47 49 50 51 52 53 54 55 56 58 59 60 61 63 64 65 66 67 68 69 69 70 69 69 69 68 68 68 67
41 42 43 44 43 43 43 44 45 45 46 47 49 50 51 52 53 54 56 56 57 58 59 60 62 63 64 65 66 66 67 68 67 68 68 68 67 66 66 65 66 65 65
44 44 45 45 44 45 45 47 48 49 50 51 53 53 54 56 57 58 59 59 59 59 60 62 63 64 65 65 66 66 66 66 66 65 65 64 64 64 64 64 64 63 62
46 47 48 48 49 49 50 52 53 53 54 54 54 56 58 59 60 61 61 61 61 61 61 61 63 63 64 64 64 64 64 63 62 62 62 62 62 62 61 61 60 58 57
49 49 51 52 53 53 54 56 56 57 57 58 59 60 60 61 61 61 61 61 61 61 61 61 62 62 62 62 61 61 61 60 60 60 60 59 59 58 57 56 55 54 52
51 52 54 55 56 57 57 58 59 59 60 61 61 61 61 61 61 61 60 60 60 60 60 59 59 60 60 59 59 58 58 58 57 57 56 56 55 54 53 51 50 49 48
55 56 57 57 58 58 59 59 60 61 61 62 62 62 62 61 61 60 60 59 59 58 58 57 57 57 57 57 56 56 55 55 54 53 52 51 50 49 47 45 44 43 43
56 57 57 57 58 59 60 60 60 61 61 61 61 61 61 61 60 59 58 58 57 56 56 55 55 55 55 54 53 52 51 50 49 48 46 45 43 41 40 39 38 38 39
55 56 56 57 58 58 59 59 60 60 60 60 60 60 59 58 58 57 56 55 54 54 54 53 52 51 50 49 48 47 45 43 41 40 38 37 36 36 35 35 35 36 36
52 53 54 55 56 57 58 58 58 58 57 57 57 56 55 54 54 53 53 52 51 50 49 48 47 45 44 43 41 39 37 34 32 32 31 31 32 32 32 32 33 34 34
50 51 53 54 55 55 55 55 55 55 54 54 53 52 50 49 48 48 47 47 46 45 43 41 39 37 35 34 32 30 29 26 25 25 26 27 28 29 29 29 30 30 30
49 50 51 52 52 52 51 52 51 51 49 48 47 46 45 44 44 42 41 40 39 36 33 30 29 28 26 25 24 22 21 21 22 22 22 23 25 26 27 27 27 27 27
48 48 48 48 48 48 48 47 47 45 44 42 41 40 38 37 36 34 32 30 28 26 24 22 20 19 19 17 16 16 17 18 19 20 20 21 22 23 25 25 25 25 25
44 44 45 45 45 44 44 42 40 38 37 36 34 32 30 28 26 24 22 20 19 17 16 14 14 13 12 12 13 14 15 16 17 18 19 19 20 21 22 24 23 23 23

GEFSMA_500_meanwind_078.txt.gz
Wind_Speed
10 11 12 12 13 13 13 13 13 13 13 14 14 14 15 15 15 16 17 18 19 20 20 21 22 23 24 24 24 25 26 27 28 28 29 29 30 30 31 31 32 32 32
13 14 14 14 15 14 14 14 14 15 15 15 15 15 15 15 16 16 17 18 20 21 22 23 24 24 25 26 26 27 28 29 30 31 32 32 33 33 34 34 35 35 36
15 15 16 16 16 16 16 16 16 16 17 17 17 17 17 17 17 17 18 19 20 22 23 24 25 26 27 28 29 30 30 30 31 32 34 34 35 36 36 36 37 37 38
19 19 19 19 19 19 19 19 19 19 20 19 18 18 18 18 18 19 19 20 21 22 23 24 26 27 28 28 30 31 32 33 33 35 36 37 38 38 39 39 40 40 41
22 23 23 23 23 24 23 23 23 23 23 22 21 21 20 20 20 20 20 21 22 23 24 25 26 28 29 31 32 33 34 35 36 38 39 40 41 42 43 43 44 44 44
26 26 27 27 27 27 27 27 27 27 27 27 25 25 24 24 23 23 24 24 25 26 28 29 29 30 32 33 34 36 37 38 39 40 41 43 44 45 46 46 47 48 48
30 31 31 30 30 31 31 31 31 30 30 30 30 29 29 27 27 27 27 28 29 30 32 33 33 34 35 36 37 38 40 41 42 44 45 46 47 48 49 50 51 52 52
31 32 33 32 31 31 31 30 33 33 32 32 32 31 30 30 30 30 31 32 33 34 35 36 37 38 39 41 42 43 44 46 47 48 49 51 52 53 54 55 55 56 57
33 33 34 33 32 32 33 34 34 32 33 34 34 34 32 33 33 33 34 36 37 38 40 41 42 43 44 46 47 48 49 50 51 52 53 55 56 57 58 59 60 61 62
35 36 38 36 34 34 35 36 36 36 36 35 37 36 36 36 37 38 39 40 40 42 43 45 46 48 49 50 52 53 54 55 57 57 58 59 60 61 62 63 64 65 66
36 37 38 37 36 37 37 37 37 37 37 37 38 38 38 39 40 42 43 44 45 46 47 49 50 52 54 55 56 57 58 59 61 61 62 63 64 65 66 66 67 68 68
38 38 39 38 39 39 39 39 38 38 39 39 38 40 42 43 44 46 46 47 49 50 51 52 54 56 57 58 59 60 61 62 63 64 65 66 67 67 68 68 68 69 69
38 39 39 40 41 41 40 40 40 41 42 41 43 44 46 47 48 49 50 51 52 53 55 56 58 59 60 61 61 63 64 65 66 67 67 68 68 69 69 69 69 69 69
40 40 41 41 42 41 41 43 43 43 44 45 47 49 51 51 51 52 53 53 55 57 58 60 61 62 62 63 63 64 65 66 67 67 68 68 68 68 68 68 67 67 66
42 42 42 43 44 44 44 46 47 48 49 51 52 53 54 55 55 55 56 58 58 59 60 61 63 64 64 64 64 65 65 66 66 67 67 67 67 67 66 66 65 64 63
42 43 44 44 45 47 49 50 51 53 53 54 55 56 57 57 58 59 60 61 62 62 62 63 63 64 64 64 65 65 65 65 64 64 64 64 64 63 63 62 61 61 61
44 45 46 47 49 51 52 53 54 54 55 57 58 60 61 61 61 62 62 62 63 62 62 62 63 63 63 64 64 63 63 62 61 61 61 61 60 60 59 59 58 58 58
47 48 48 50 52 53 55 55 55 57 58 59 60 60 61 62 62 61 61 61 61 60 60 60 61 62 62 62 62 61 60 60 59 59 59 58 57 56 56 55 54 54 53
48 50 51 52 53 54 56 57 58 58 59 59 59 59 59 59 59 59 59 58 58 58 58 58 58 58 59 59 58 58 58 58 57 56 55 53 52 51 50 49 47 46 45
49 50 51 52 53 54 55 56 57 57 57 58 58 58 57 57 57 57 56 56 55 55 55 54 54 53 53 53 53 52 51 51 49 47 46 45 43 42 41 39 38 38 38
47 48 50 51 53 54 55 56 57 57 57 57 56 55 55 55 54 53 53 52 51 51 50 49 48 48 47 46 45 43 41 40 40 39 38 37 35 33 33 32 33 33 34
47 49 50 51 52 53 54 54 55 55 54 54 53 52 52 52 51 49 47 46 45 44 43 42 41 39 38 37 35 34 32 31 30 30 30 29 29 28 28 28 29 30 31
46 48 49 51 52 53 53 54 53 52 51 50 49 48 47 45 43 42 40 40 38 37 36 34 32 31 30 28 27 26 25 25 24 24 24 25 25 25 25 26 26 27 27
45 47 49 50 50 51 50 50 49 48 46 45 43 41 40 38 36 35 34 32 31 29 27 26 25 24 23 22 22 21 20 20 20 20 20 21 23 23 23 23 23 24 25
44 45 46 45 45 45 45 43 42 41 39 38 36 34 33 32 30 28 26 25 23 23 21 20 19 18 18 18 18 18 17 18 18 19 19 20 20 21 22 21 22 23 23
41 41 41 40 40 39 37 36 35 33 31 29 28 27 26 25 23 21 20 19 18 18 17 17 16 15 15 15 15 16 16 16 17 17 18 18 19 19 20 21 21 22 22

GEFSMA_500_meanwind_084.txt.gz
Wind_Speed
14 14 15 15 15 15 16 16 17 17 17 17 18 18 18 18 18 18 18 18 18 18 18 18 18 19 20 21 21 22 22 23 24 25 25 26 26 27 27 28 28 29 30
17 17 18 19 18 19 19 19 19 20 20 20 20 20 20 20 20 21 21 21 21 21 21 21 21 22 22 22 23 24 25 25 26 27 27 28 29 30 30 30 30 31 31
19 20 21 22 22 22 22 23 23 23 23 23 23 23 23 23 23 23 23 23 23 23 24 24 24 24 24 25 25 25 26 27 28 29 29 29 30 31 32 33 33 34 34
22 22 23 23 25 26 26 26 26 26 26 26 25 25 26 25 25 26 26 26 26 26 26 26 26 26 26 27 28 28 29 29 30 31 31 32 33 34 35 35 36 37 38
25 26 26 27 27 28 29 30 29 29 29 29 29 28 28 27 27 28 29 29 29 29 29 29 29 29 30 30 30 31 32 33 34 34 35 35 36 36 37 38 39 40 40
28 28 28 28 29 30 31 32 32 32 31 31 30 30 30 29 29 30 31 32 32 32 32 32 32 32 33 34 34 35 36 37 37 38 39 39 40 41 41 42 42 43 44
31 31 32 32 32 32 32 32 31 31 30 30 30 31 31 31 33 33 34 35 35 35 36 36 36 37 38 39 39 40 40 41 41 42 43 44 44 45 46 46 47 47 48
34 34 34 33 32 32 32 32 32 32 30 30 31 32 33 34 35 36 37 36 37 38 39 39 40 40 42 43 44 44 45 45 46 47 48 49 50 50 51 52 52 52 52
36 36 34 33 32 31 31 31 31 31 30 30 31 33 34 35 36 37 37 38 39 40 41 43 44 45 46 47 47 48 49 50 51 52 53 54 55 55 55 56 56 57 57
36 35 34 34 33 32 31 32 32 32 33 32 32 33 34 35 37 37 38 39 39 41 43 44 46 48 49 51 52 53 54 55 56 57 58 59 59 60 60 60 60 60 61
39 37 37 36 34 32 33 33 34 34 35 34 33 34 35 38 39 40 41 41 42 44 46 47 49 51 52 54 55 56 58 59 60 60 61 62 62 63 63 63 64 65 65
41 40 38 37 35 35 36 36 36 36 36 36 36 37 39 41 42 43 44 44 46 48 49 51 52 54 55 57 59 60 61 62 64 64 65 65 66 66 66 67 67 67 67
40 39 38 38 38 38 38 37 38 38 37 37 38 40 41 42 43 45 46 48 49 51 53 55 56 56 57 58 60 61 63 64 66 67 68 68 67 68 68 69 69 69 69
41 40 40 40 41 43 42 42 42 40 40 40 41 42 43 44 46 48 49 51 53 55 57 58 59 60 61 62 62 63 64 64 65 67 68 69 69 70 71 71 70 70 69
43 42 43 43 44 45 44 44 43 42 43 43 44 44 46 47 50 51 53 54 56 56 58 60 60 61 62 62 63 63 64 65 66 67 68 69 70 71 71 71 70 69 68
44 45 45 46 46 45 45 44 43 44 45 46 46 47 49 51 52 54 55 57 57 58 59 60 60 61 61 62 63 63 64 65 66 66 67 67 68 69 68 67 67 67 67
45 46 46 46 46 45 45 44 45 46 47 48 49 51 52 53 54 55 56 56 56 57 57 58 59 59 60 60 60 60 62 63 64 64 64 64 64 64 64 64 63 62 60
45 46 45 45 45 46 46 46 47 49 50 51 52 53 54 54 55 55 55 55 55 55 55 55 56 56 56 56 56 56 57 58 57 56 55 55 55 55 55 54 54 54 54
44 44 44 45 45 46 46 46 48 49 51 52 52 52 52 52 52 52 52 51 52 52 52 51 51 51 51 51 51 50 49 48 48 48 47 48 47 47 47 47 47 47 47
41 42 42 43 44 45 46 46 48 49 50 50 49 49 49 49 49 49 49 48 48 47 46 46 46 46 46 46 44 43 42 42 41 41 40 40 40 40 40 40 41 41 41
39 40 41 42 43 44 44 45 46 46 46 46 46 46 45 45 45 44 44 43 42 42 42 41 41 41 39 38 38 37 37 36 36 36 35 35 34 33 33 33 34 34 35
37 38 39 40 41 42 42 42 43 43 42 42 41 41 41 40 39 38 37 37 37 36 36 35 35 34 34 34 33 32 31 30 30 31 30 30 29 28 28 29 29 29 30
35 36 37 37 37 37 37 38 38 38 37 37 37 37 36 35 34 33 32 31 30 30 30 29 29 29 29 29 27 27 26 26 26 26 25 25 25 25 25 24 24 25 26
34 34 34 33 34 34 34 34 34 34 35 35 34 33 32 30 29 28 27 26 26 26 25 25 25 25 24 24 24 24 23 23 23 22 22 22 22 22 22 22 22 22 23
30 30 31 31 31 31 31 32 32 32 31 30 29 27 26 25 24 23 22 22 22 21 21 20 20 20 20 20 20 20 20 20 20 20 20 20 20 20 20 20 20 20 21
28 28 28 28 28 28 29 29 28 28 26 25 24 23 23 22 21 19 19 19 18 18 18 17 17 17 18 18 17 17 17 18 18 18 18 18 18 18 18 18 19 19 20

GEFSMA_500_meanwind_090.txt.gz
Wind_Speed
14 14 14 14 15 15 16 17 18 18 19 20 20 21 22 23 23 22 21 21 20 20 20 20 20 20 21 21 21 22 22 23 23 23 24 24 24 24 24 24 25 25 26
15 16 16 16 17 17 18 19 19 20 21 22 23 24 25 25 25 25 24 23 23 23 22 22 22 23 23 24 24 25 25 25 25 26 26 26 26 26 26 27 27 28 29
18 18 18 18 19 20 21 22 22 22 23 24 25 27 28 28 28 28 26 26 26 25 25 24 24 25 26 26 27 27 28 28 28 28 29 29 29 29 30 30 30 31 31
21 21 21 22 23 23 24 25 25 24 25 26 27 28 28 28 28 28 28 29 28 27 27 27 27 28 29 29 29 30 31 31 31 32 32 32 33 34 35 35 35 34 34
22 24 24 25 26 26 26 27 27 27 28 28 28 28 28 28 29 30 30 31 31 30 29 29 29 31 32 32 33 33 34 35 35 35 35 36 36 37 38 38 38 38 39
25 26 26 27 28 29 29 29 29 31 31 30 30 29 29 29 30 31 32 32 33 34 33 33 33 33 34 35 36 36 36 37 39 39 39 40 40 41 41 42 43 43 43
26 27 28 28 29 30 30 30 32 32 30 30 29 28 29 30 30 30 31 32 33 34 36 36 37 37 38 38 38 39 41 42 42 43 44 44 45 46 46 47 48 48 48
29 30 31 30 29 30 33 33 34 33 31 31 30 30 31 31 32 32 32 33 34 35 37 38 39 40 40 41 42 43 44 45 46 47 48 49 49 50 50 51 52 52 52
32 32 33 32 31 32 33 33 33 32 33 32 31 32 32 32 33 33 34 35 36 37 38 39 40 42 43 44 45 47 49 49 51 52 52 52 53 54 54 55 55 55 56
35 35 35 35 35 35 36 36 35 35 34 33 33 33 33 34 34 34 36 37 38 39 40 42 43 44 46 48 49 51 52 53 54 55 57 57 57 58 58 59 59 60 61
36 36 36 37 38 37 38 36 35 36 35 35 35 36 36 37 37 38 39 40 41 43 44 45 47 48 50 52 54 55 56 57 58 59 60 60 60 59 60 61 62 63 64
36 37 37 37 38 37 37 37 36 37 37 38 38 39 39 39 40 41 43 43 44 45 48 50 52 54 54 55 57 58 59 60 61 61 61 62 63 63 64 64 64 65 66
37 38 38 38 38 39 39 38 38 38 39 40 40 41 41 42 43 45 46 47 47 49 51 53 55 55 56 57 58 59 59 59 61 62 62 63 64 65 66 67 68 69 69
40 40 41 41 41 41 41 40 40 41 42 42 42 42 44 44 46 47 47 48 49 50 52 53 55 55 56 57 58 58 59 60 60 61 61 62 64 65 65 67 69 70 70
42 42 42 42 42 43 42 41 42 42 43 43 43 44 46 47 48 48 48 49 49 51 52 53 54 56 57 58 58 58 60 61 62 62 62 63 64 64 65 66 67 67 68
43 43 43 43 43 43 43 44 44 43 44 45 45 46 47 47 48 48 47 47 48 49 50 51 53 54 55 56 57 58 58 59 60 61 61 61 62 62 62 63 64 64 64
43 44 44 44 44 44 44 45 45 45 47 47 47 46 46 47 47 46 46 46 47 48 49 50 51 51 51 52 53 54 54 55 56 57 57 57 57 57 57 57 57 57 56
43 44 44 45 45 45 45 46 46 45 46 45 45 45 45 45 46 47 47 47 48 48 49 49 50 50 50 51 50 51 52 53 53 54 53 52 51 51 50 50 50 50 50
43 43 43 43 43 44 44 43 43 43 44 43 43 43 44 45 46 46 46 46 47 47 47 47 46 46 46 47 47 47 48 48 48 47 47 46 45 45 45 44 44 44 45
42 42 41 41 41 42 41 41 41 41 42 42 42 42 42 42 42 42 43 43 43 43 42 42 42 41 41 41 41 41 41 41 40 39 39 39 39 40 40 40 40 40 40
40 40 39 39 39 39 39 38 38 38 38 39 38 38 38 38 39 39 39 39 38 37 37 36 36 36 36 36 36 36 36 35 34 34 34 34 33 33 34 35 35 35 35
36 36 36 36 36 36 36 36 36 36 36 36 36 36 35 35 35 34 33 32 32 32 32 32 32 32 32 32 32 32 31 30 30 30 30 31 30 29 29 30 30 30 30
33 33 33 33 33 34 34 34 34 34 34 33 33 32 31 30 31 31 30 29 29 30 30 29 29 29 29 29 29 28 28 28 27 27 27 27 27 27 26 26 25 26 26
29 30 30 31 31 31 32 32 32 31 31 30 29 28 28 29 29 28 28 28 28 28 27 28 28 27 27 27 26 26 25 25 25 25 24 24 24 23 23 23 22 22 23
27 28 28 28 29 29 30 29 28 27 26 25 26 26 26 27 26 26 26 26 26 26 25 24 24 23 23 23 23 23 23 22 22 22 21 21 20 20 20 20 19 20 20
26 26 26 26 26 26 25 24 24 23 23 24 24 24 24 24 24 24 23 23 23 22 21 20 19 19 20 20 20 20 20 19 19 19 19 18 18 18 18 18 18 18 18

GEFSMA_500_meanwind_096.txt.gz
Wind_Speed
13 13 12 13 12 12 12 13 13 14 15 16 17 18 19 19 19 20 20 21 22 21 20 20 21 21 21 20 20 21 21 22 22 22 23 24 25 25 25 26 26 27 27
14 14 14 13 13 14 14 15 16 17 18 18 19 19 20 21 21 21 21 21 22 22 23 23 23 23 23 23 24 24 24 24 25 25 26 26 27 28 29 29 29 29 30
14 15 15 14 15 16 16 17 18 19 20 20 21 21 21 22 22 23 22 22 23 23 24 25 26 26 25 25 26 27 28 28 29 29 30 30 30 31 31 32 32 32 33
16 17 16 15 16 17 18 19 19 19 20 21 21 22 21 21 23 24 24 24 24 25 26 26 28 28 29 29 28 29 30 31 32 33 33 34 34 34 34 34 35 36 36
17 16 16 16 17 18 19 19 20 19 21 21 22 23 23 23 24 25 25 26 25 25 26 28 28 29 31 31 32 32 33 34 35 36 36 36 37 37 38 38 39 40 40
18 18 18 17 17 18 20 20 21 22 21 21 22 23 24 24 25 26 26 26 27 27 27 28 30 30 31 33 34 35 37 38 38 39 40 40 41 41 42 43 44 44 44
19 20 19 18 19 20 21 21 22 23 23 23 24 24 25 26 26 27 27 27 28 29 29 30 32 32 34 36 37 38 39 40 41 42 43 44 45 45 46 47 47 47 48
21 21 21 22 21 21 22 23 23 23 24 25 26 27 27 27 28 28 28 30 31 32 33 34 35 36 38 39 39 41 42 43 44 45 45 47 48 49 50 51 51 51 52
24 24 25 25 24 24 25 25 25 26 26 26 27 27 28 28 28 30 31 32 33 34 35 36 37 38 39 41 42 44 46 47 48 49 50 51 52 53 54 55 55 56 56
25 26 26 26 26 27 27 28 28 29 30 30 29 29 29 30 31 32 33 35 36 37 38 40 40 41 42 44 46 47 49 50 51 52 54 55 56 57 58 59 59 59 60
27 28 28 28 29 29 29 30 30 30 32 31 31 31 31 33 34 36 36 37 39 40 42 43 44 45 46 47 49 50 51 53 55 55 56 57 58 59 60 61 61 61 62
29 29 30 30 30 30 32 32 32 33 31 31 33 34 35 36 37 38 39 40 41 42 44 45 46 47 49 50 52 53 53 55 55 57 57 58 59 60 62 63 62 62 63
30 31 31 32 33 33 33 34 34 34 34 35 35 37 38 39 39 39 41 42 44 45 46 46 47 48 50 51 51 52 53 54 56 57 59 59 60 60 61 61 63 64 63
34 34 35 35 36 36 36 37 37 37 37 37 38 39 40 40 41 41 42 43 44 45 46 47 48 49 50 51 52 53 53 55 56 57 58 59 59 60 60 61 61 62 63
36 36 37 38 38 39 39 40 39 40 40 39 40 41 42 42 42 42 43 44 45 47 48 48 49 50 51 52 53 54 54 55 56 56 57 58 59 61 61 62 62 62 61
37 38 39 39 39 39 39 40 40 41 41 41 42 43 43 43 44 45 45 45 46 48 49 49 50 50 50 51 51 52 54 55 55 55 56 56 57 57 57 57 57 57 58
38 39 39 39 39 39 40 41 41 42 42 43 43 42 42 43 43 44 44 44 45 45 46 47 48 49 50 50 51 51 51 50 50 50 49 49 49 49 48 48 49 49 49
39 39 39 39 39 39 40 40 41 42 42 41 41 41 42 42 42 43 44 44 44 44 44 45 46 46 47 47 47 46 45 44 44 44 44 43 44 44 44 43 43 43 43
39 39 39 40 40 40 40 41 41 40 40 40 40 41 41 42 42 43 43 43 43 43 43 43 42 42 42 42 42 43 43 42 41 41 41 41 41 41 40 40 39 39 39
37 37 38 38 38 39 39 39 39 38 39 39 39 39 39 40 40 40 40 40 40 39 39 39 39 39 39 39 39 39 39 38 38 38 38 37 37 36 36 36 36 35 34
35 36 36 36 36 36 36 36 36 37 37 38 37 37 37 38 38 37 37 36 36 36 36 37 37 37 36 36 36 35 35 35 35 35 34 33 33 33 33 33 32 31 30
33 33 33 34 34 34 34 34 35 35 34 35 35 35 35 34 33 33 33 33 33 33 33 33 33 33 33 33 32 32 32 31 31 30 30 30 30 29 29 28 27 26 26
30 30 31 31 32 31 31 31 31 31 31 31 31 30 30 30 30 30 29 29 29 29 30 30 29 29 29 29 29 28 28 28 26 26 26 25 25 24 23 23 22 22 22
28 28 29 29 28 28 28 28 28 28 28 28 27 27 27 27 27 26 26 26 26 27 27 27 27 26 26 26 24 24 23 23 22 21 21 21 21 21 20 20 20 20 20
25 26 26 25 25 25 25 26 26 25 25 25 25 25 24 24 23 23 24 24 25 25 24 24 24 23 22 21 20 19 19 19 18 18 18 18 19 19 19 18 18 18 18
23 23 23 23 23 23 23 23 23 23 23 23 22 22 22 22 22 22 22 22 22 21 21 21 20 18 17 16 16 16 16 16 16 16 16 16 16 16 16 17 17 17 17

GEFSMA_500_meanwind_102.txt.gz
Wind_Speed
18 17 17 16 16 15 15 15 15 15 15 15 15 15 16 17 17 17 17 18 18 17 18 18 19 19 20 20 20 20 21 22 22 22 22 23 23 24 25 25 25 26 26
19 19 19 19 18 18 17 17 17 17 17 17 17 17 17 18 17 18 18 19 18 18 18 19 20 21 21 22 22 22 23 24 24 24 25 26 26 27 27 27 28 29 29
21 21 21 20 20 20 19 19 19 19 18 19 19 19 19 20 20 20 20 21 20 20 21 22 23 23 23 23 23 24 25 26 26 27 28 28 29 29 30 31 31 31 32
23 23 22 22 22 21 21 20 20 21 20 20 21 21 22 22 23 23 23 23 23 23 24 25 25 25 25 26 26 27 27 28 29 30 31 31 32 32 33 34 34 35 35
25 24 24 23 22 22 21 21 21 22 22 22 23 24 24 24 25 25 25 25 25 26 26 26 26 27 28 28 28 29 30 30 31 31 32 34 34 35 36 36 38 38 39
27 26 25 24 23 23 23 23 23 24 24 24 25 25 26 27 27 27 26 27 27 28 28 28 28 28 29 30 31 31 32 33 33 34 35 36 38 39 40 40 41 41 42
26 27 26 25 25 26 26 26 27 27 26 27 27 27 27 29 29 29 28 28 29 30 30 30 30 31 32 33 34 35 36 36 37 38 39 40 41 42 43 44 44 45 46
26 26 25 25 25 26 27 27 28 28 28 28 28 28 28 29 30 30 30 30 31 31 32 33 34 35 36 37 37 38 39 40 40 41 42 43 45 46 46 47 47 48 49
26 26 26 26 26 26 28 28 30 30 29 29 30 31 31 30 30 30 31 32 33 34 35 35 36 38 39 40 40 41 42 42 43 44 45 46 48 49 49 50 50 51 52
27 27 27 28 27 27 28 29 30 31 31 32 33 33 33 33 32 32 33 34 35 37 38 38 39 41 41 42 43 44 45 45 46 47 48 48 49 51 52 52 54 54 54
28 27 27 27 28 29 30 31 32 32 32 33 33 34 35 34 35 36 37 38 38 39 39 40 41 43 44 45 46 47 47 47 47 48 49 50 51 52 53 54 55 56 57
29 29 29 30 30 31 31 32 33 34 34 33 34 35 35 36 38 39 40 40 40 41 42 42 43 45 46 47 48 49 49 50 50 51 52 53 53 54 54 55 56 57 58
31 31 31 31 32 32 33 34 34 35 36 36 36 36 37 39 40 41 41 42 43 44 45 45 45 46 47 47 49 50 51 52 52 53 54 54 55 55 56 57 57 57 58
32 32 32 33 34 34 34 34 36 37 36 36 37 37 39 39 40 41 41 42 44 45 46 46 46 47 47 48 49 50 51 52 53 53 54 54 55 55 55 56 56 57 57
31 32 33 34 35 35 36 37 37 37 37 37 38 38 39 40 41 42 43 43 44 45 46 47 47 48 48 48 49 50 51 51 52 53 53 52 52 53 53 54 54 54 55
33 33 34 34 35 36 37 37 37 37 37 38 39 39 40 42 43 43 43 44 44 45 46 46 46 48 48 48 49 49 50 50 50 50 50 49 49 50 51 51 51 51 51
34 35 35 35 35 36 36 36 36 36 37 38 39 40 41 42 42 42 43 43 44 44 45 45 46 46 47 46 47 47 48 48 48 48 48 48 48 49 48 48 48 48 47
33 33 34 34 35 36 36 36 37 37 37 38 39 39 40 40 41 41 41 41 42 42 42 43 43 43 44 44 44 44 45 45 45 45 45 46 46 45 44 44 44 43 43
33 33 33 34 34 35 35 36 36 36 37 37 38 38 38 38 38 38 38 39 39 39 40 40 40 40 40 40 41 41 41 41 41 41 41 41 40 40 41 40 39 38 38
32 32 32 33 33 34 34 34 35 35 36 36 36 36 35 35 35 36 37 37 36 37 37 36 36 36 37 37 37 37 37 37 38 37 37 36 36 36 36 35 35 35 34
30 30 31 31 31 31 32 33 33 33 33 33 32 33 33 34 34 34 35 35 35 34 33 33 33 33 33 33 33 34 34 34 34 33 33 32 32 31 30 30 30 30 31
27 28 28 28 29 29 30 31 30 30 30 30 31 31 32 32 32 33 33 33 33 31 30 31 31 31 31 31 32 32 31 30 30 29 29 28 27 27 27 26 26 26 27
25 26 26 27 27 28 28 27 27 27 27 27 28 29 30 30 30 29 30 29 29 29 29 29 29 28 28 29 28 28 27 25 25 25 24 24 23 23 23 24 24 24 24
24 24 24 24 24 25 25 25 25 25 25 26 25 25 25 25 25 25 25 25 26 25 25 25 25 24 24 23 23 22 22 22 22 21 21 21 21 21 21 21 21 22 22
21 21 22 22 23 23 23 23 23 23 23 23 23 22 22 22 22 22 22 22 22 21 21 21 20 20 20 19 19 18 18 18 18 18 18 18 18 19 19 19 20 20 20
19 19 20 19 20 20 20 20 20 20 20 20 20 20 20 20 20 20 20 20 19 19 18 18 17 16 16 15 15 15 15 14 15 15 15 15 16 16 17 17 17 17 18

GEFSMA_500_meanwind_108.txt.gz
Wind_Speed
21 22 22 21 21 20 20 19 19 19 19 18 18 18 17 18 18 18 18 19 19 18 18 18 18 18 19 19 19 20 21 21 20 20 21 21 22 22 23 24 25 25 25
23 23 23 23 22 22 21 21 21 21 21 20 20 20 19 19 20 20 20 20 20 20 20 20 20 21 21 21 22 22 22 22 22 23 23 24 24 24 25 26 26 27 28
24 24 25 25 24 24 23 24 24 24 23 23 22 22 22 22 22 22 22 23 23 23 23 23 23 23 23 24 24 25 25 25 25 26 26 27 27 28 28 28 29 29 30
26 25 27 27 27 26 26 26 26 26 26 25 24 24 24 24 25 24 24 24 25 25 26 26 26 26 26 26 26 27 27 28 29 29 30 31 31 31 31 32 32 32 32
27 28 29 30 30 30 29 28 28 27 27 27 27 27 26 26 27 27 27 27 27 27 28 28 29 29 29 28 29 29 29 30 31 31 32 32 33 33 34 34 35 35 36
28 29 29 30 30 31 31 30 30 29 29 29 28 28 28 29 29 29 29 29 30 30 31 31 31 31 31 32 31 32 32 33 33 34 34 35 35 36 37 38 39 40 40
29 29 30 30 30 30 31 31 31 31 31 30 30 30 30 30 30 30 30 30 31 32 32 33 33 33 33 34 34 35 36 37 37 38 39 39 39 40 40 41 42 43 45
30 31 31 31 32 33 32 31 30 30 31 32 32 30 31 32 33 32 31 31 32 33 34 34 34 35 36 37 37 38 39 40 40 41 41 43 43 43 43 44 45 47 47
32 32 33 33 33 32 31 30 30 31 31 31 32 32 32 33 34 33 33 34 34 34 35 36 36 37 39 40 40 41 42 43 43 44 45 45 46 45 46 46 47 48 48
34 34 34 33 32 31 31 32 33 34 34 34 34 34 34 34 34 34 35 36 37 37 37 38 39 40 41 42 43 44 45 46 46 47 48 48 48 48 48 49 49 49 49
34 33 32 32 32 33 33 33 34 34 35 35 36 36 36 35 36 37 37 37 38 39 40 41 42 43 44 45 45 46 47 47 47 48 48 49 50 50 51 51 50 51 51
33 32 31 31 32 33 33 34 35 35 36 37 37 37 37 37 37 38 39 40 40 41 42 43 44 46 47 48 48 48 48 48 48 49 49 50 50 51 51 52 51 52 52
34 34 33 32 33 35 35 35 36 36 36 37 38 38 38 39 40 40 41 41 42 42 44 45 46 46 47 48 48 49 48 48 48 49 50 50 50 51 51 52 52 53 53
32 32 33 32 32 32 33 34 35 36 37 38 39 40 41 41 42 43 43 43 43 44 45 45 46 47 47 47 47 48 48 48 48 48 49 49 49 50 51 51 51 51 52
30 30 30 31 31 32 32 33 34 36 38 39 40 41 41 42 42 42 42 43 44 45 45 45 46 47 47 48 48 48 48 48 49 48 48 48 49 50 50 50 51 51 51
29 30 30 31 32 33 33 34 35 35 37 38 39 40 41 41 41 41 41 42 43 44 45 45 46 45 46 47 47 47 46 47 47 47 47 48 49 49 49 50 49 48 48
29 30 32 32 33 33 33 34 34 35 36 37 38 39 40 40 40 40 40 41 42 43 44 44 44 44 44 45 45 45 45 45 45 46 46 46 46 46 46 46 45 44 44
29 30 31 32 32 32 32 34 35 35 36 37 38 38 39 38 38 39 40 41 41 41 42 42 42 42 42 42 42 42 42 43 43 44 44 43 43 43 43 42 41 41 42
29 29 29 29 30 31 32 33 33 34 35 35 36 36 36 37 37 38 38 38 39 39 39 39 40 40 39 39 40 40 40 41 41 40 40 40 39 38 38 38 37 37 37
27 27 28 29 30 31 31 32 33 33 34 34 34 34 35 35 35 35 35 35 36 36 36 36 36 36 36 36 37 37 37 37 36 36 36 35 34 33 33 34 33 33 33
25 26 26 27 28 29 30 31 31 31 31 31 31 32 32 32 32 32 32 32 32 32 32 33 33 33 33 34 34 34 34 33 32 31 31 30 30 30 29 28 28 28 29
24 24 25 26 26 27 27 27 28 28 28 29 30 30 30 30 30 30 31 31 31 30 30 29 30 30 30 30 29 29 29 28 27 27 26 26 25 25 24 24 24 24 24
22 23 23 24 25 25 25 25 25 26 26 27 27 28 28 28 28 28 27 27 27 27 27 27 27 27 26 26 26 25 24 23 22 22 21 21 21 20 21 20 20 20 20
19 20 21 22 22 23 23 23 24 24 24 24 24 24 24 25 25 25 25 24 24 24 24 24 23 23 22 22 21 20 19 19 18 18 18 17 16 16 16 16 17 17 18
18 18 19 19 20 20 20 21 21 21 21 21 21 21 21 21 22 22 22 22 22 22 22 21 20 19 18 17 16 15 15 15 15 14 14 13 12 13 13 14 15 16 17
16 17 17 17 18 19 19 20 20 19 19 19 19 19 19 19 20 20 19 19 19 19 18 18 17 15 14 13 13 12 11 11 11 10 10 10 11 11 12 13 14 15 16

GEFSMA_500_meanwind_114.txt.gz
Wind_Speed
23 23 22 22 22 22 22 21 21 21 21 20 20 20 19 19 19 18 17 17 17 17 17 17 18 18 18 18 18 18 19 19 19 19 19 20 20 21 21 21 22 22 24
23 23 23 23 23 23 24 23 23 23 23 22 21 21 22 22 21 21 20 20 20 19 20 20 20 20 20 20 20 21 21 21 21 21 22 22 23 23 24 24 25 26 27
23 24 24 23 23 24 25 25 26 25 24 24 24 24 24 24 24 23 23 22 22 22 22 21 21 22 22 22 22 22 23 23 23 24 24 25 25 26 27 27 27 28 29
24 24 25 24 24 25 25 26 27 27 26 26 26 25 25 25 25 25 25 25 25 24 24 24 24 24 24 24 25 25 26 26 27 27 27 28 28 29 30 30 31 31 32
25 24 25 26 25 25 25 25 27 27 27 27 27 27 27 27 27 27 27 27 27 27 27 27 27 27 27 27 27 28 28 29 30 30 30 31 32 32 33 33 34 35 35
25 26 26 27 27 27 27 27 27 27 27 29 29 28 28 28 29 29 28 29 30 30 30 29 29 30 29 28 29 29 30 31 32 33 33 34 34 35 36 37 37 38 38
28 28 27 26 27 28 28 28 29 29 28 28 29 29 29 29 30 30 29 30 30 31 31 31 31 31 31 31 32 32 32 33 34 35 35 36 37 38 39 40 40 41 41
28 29 28 27 28 30 30 29 30 30 30 30 30 30 31 30 30 30 30 31 32 32 32 33 33 34 34 33 34 35 36 37 38 38 39 40 40 41 42 43 43 44 44
30 30 29 30 30 31 31 31 32 32 32 31 32 32 32 32 32 32 33 33 33 33 34 34 35 36 35 35 35 36 37 38 39 41 42 43 44 44 45 45 45 46 46
31 31 30 30 31 31 32 34 34 34 34 33 34 34 34 33 33 33 34 35 35 35 36 37 36 37 37 37 38 39 39 41 42 43 44 45 45 46 48 48 47 48 48
33 32 31 31 32 32 32 32 33 34 34 35 35 35 36 36 35 35 35 36 37 37 37 38 38 38 39 39 40 41 42 43 44 45 46 47 48 49 49 49 49 50 50
33 33 33 33 33 33 32 32 33 34 35 36 36 37 37 37 37 37 37 37 37 38 39 39 39 40 41 41 41 42 44 45 46 46 47 48 48 49 49 50 50 50 51
34 33 33 33 33 33 33 34 33 34 34 35 36 37 37 37 38 38 39 40 40 40 41 42 42 42 42 42 44 45 45 46 47 48 48 48 49 49 49 50 50 50 50
35 34 33 33 33 34 35 35 34 34 35 36 36 36 36 36 37 39 40 41 42 42 42 42 42 42 43 43 44 45 46 47 48 49 49 49 49 49 49 48 48 49 49
35 34 33 33 33 33 33 33 33 33 33 34 35 35 35 36 37 38 39 41 42 42 42 42 42 43 44 45 46 47 47 47 47 47 47 47 47 47 47 47 47 47 48
35 34 34 34 34 33 33 33 33 33 33 34 34 34 35 36 37 38 39 41 42 42 42 42 42 43 44 45 46 46 46 45 44 44 44 44 44 44 44 44 44 44 44
34 34 34 34 34 33 33 32 32 31 32 33 33 34 35 36 38 38 38 39 40 40 41 41 42 43 44 44 44 43 43 42 42 43 42 42 41 41 40 40 40 40 39
34 34 34 34 33 33 33 32 32 32 32 32 33 33 35 36 36 36 37 37 38 38 39 39 40 41 41 41 41 40 39 40 39 39 39 39 38 37 37 36 36 36 35
33 33 32 32 31 30 30 29 30 29 31 31 31 32 33 34 35 35 36 36 37 37 37 38 38 38 38 38 37 37 37 36 35 35 35 34 34 34 33 33 34 33 32
31 31 30 30 29 29 29 29 29 29 29 30 31 32 33 33 34 34 35 35 35 34 35 35 35 35 35 34 34 34 33 33 32 32 31 31 31 30 30 30 29 29 29
27 26 26 26 26 26 27 28 28 28 29 29 30 30 31 32 33 32 32 32 32 32 32 33 32 32 32 31 31 30 30 30 29 28 28 27 26 26 26 26 26 26 26
23 22 22 23 23 24 24 24 25 26 26 26 27 28 28 28 29 29 29 30 30 30 30 30 30 29 29 28 27 26 26 25 25 24 23 22 23 23 23 22 22 22 23
20 20 21 21 20 21 21 22 23 23 23 23 24 24 25 26 26 27 27 27 27 27 27 27 27 27 26 25 24 23 21 21 20 19 19 19 19 19 19 20 19 20 20
18 19 19 19 20 20 20 20 20 21 22 22 22 22 23 23 23 24 24 24 24 24 24 24 24 23 22 21 20 19 18 17 17 16 16 16 16 16 16 17 17 18 18
16 17 17 17 17 18 18 18 19 19 20 20 20 20 20 21 21 21 21 21 21 21 21 20 20 19 19 17 16 16 15 14 13 13 14 14 14 13 14 14 15 16 17
13 14 15 15 15 16 16 17 17 17 18 18 18 19 19 20 20 19 19 19 19 19 18 17 16 16 15 14 13 12 11 11 11 11 12 12 11 11 11 12 13 14 15